     2.00           OBSERVATION DATA    G (GPS)             RINEX VERSION / TYPE
teqc 1998Oct7 Victoria Andreatta 19981228 23:12:11UTC       PGM / RUN BY / DATE
Linux 2.0.30|PentPro|gcc|Linux|486/DX+                      COMMENT
                                                            MARKER NAME
                                                            OBSERVER / AGENCY
0 TURBOROGUE 98.05.13                                       REC # / TYPE / VERS
unknown unknown                                             ANT # / TYPE
 -1286058.9676 -4719439.9714  4082058.9168                  APPROX POSITION XYZ
        0.0000        0.0000        0.0000                  ANTENNA: DELTA H/E/N
     1     1                                                WAVELENGTH FACT L1/2
     5    L1    L2    C1    P2    P1                        # / TYPES OF OBSERV
SNR is mapped to RINEX snr flag value [1,4-9]               COMMENT
SNR: >316 >100 >31.6 >10 >3.2 >0 bad=0                      COMMENT
L1 & L2: 9 8 7 6 5 4 1                                      COMMENT
  1998    10     6     0     0    0.000000      GPS         TIME OF FIRST OBS
                                                            END OF HEADER
 98 10  6  0  0  0.0000000  0  7G18G14G31G 3G22G16G19
 -20483008.886 9 -15960758.277 6  21371547.082    21371544.739
   9294001.679 6   7242072.977 5  22435403.935    22435400.448
  -1984698.841 4  -1546513.513 4  25045738.681    25045732.254
  -5512311.097 4  -4295293.418 4  23666738.877    23666736.054
 -21075051.521 9 -16422080.419 6  21089340.465    21089338.512
 -20083897.960 9 -15649766.409 7  21280155.678    21280153.096
 -10123524.486 5  -7888436.113 4  23127292.987    23127288.493
 98 10  6  0  0 15.0000000  0  8G18G25G14G31G 3G22G16G19
 -20519500.581 9 -15989193.339 6  21364602.825    21364600.684
        -0.38914        -0.60414  25135922.231    25135920.058
   9342911.026 6   7280184.119 5  22444711.600    22444707.249
  -2034937.905 4  -1585660.685 4  25036177.936    25036171.109
  -5551253.459 4  -4325638.047 4  23659328.696    23659325.406
 -21044907.828 9 -16398591.828 6  21095076.417    21095074.732
 -20069084.334 9 -15638223.335 7  21282974.614    21282971.989
 -10160663.499 5  -7917375.539 4  23120225.608    23120221.302
 98 10  6  0  0 30.0000000  0  7G18G14G31G 3G22G16G19
 -20555925.245 9 -16017576.166 6  21357671.454    21357669.190
   9391893.896 6   7318352.557 5  22454032.167    22454028.776
  -2085203.838 4  -1624828.792 4  25026611.898    25026603.040
  -5590137.387 4  -4355937.138 4  23651929.520    23651925.841
 -21014651.543 9 -16375015.503 6  21100833.911    21100832.256
 -20054137.901 9 -15626576.774 7  21285818.815    21285815.867
 -10197767.923 5  -7946288.011 4  23113164.994    23113160.324
 98 10  6  0  0 45.0000000  0  7G18G14G31G 3G22G16G19
 -20592272.411 9 -16045898.604 6  21350754.790    21350752.621
   9440957.955 6   7356584.261 5  22463369.469    22463365.179
  -2135488.965 4  -1664011.857 4  25017043.884    25017035.096
  -5628955.140 4  -4386184.667 4  23644542.460    23644539.006
 -20984273.704 9 -16351344.461 6  21106614.762    21106613.021
 -20039047.924 9 -15614818.362 7  21288690.380    21288687.369
 -10234826.493 5  -7975164.760 4  23106113.109    23106108.376
 98 10  6  0  1  0.0000000  0  7G18G14G31G 3G22G16G19
 -20628547.045 9 -16074164.526 6  21343851.828    21343849.903
   9490091.487 6   7394870.091 5  22472718.862    22472715.062
  -2185802.613 4  -1703217.125 4  25007468.355    25007462.676
  -5667713.781 4  -4416386.153 4  23637167.392    23637163.405
 -20953780.639 9 -16327583.632 6  21112417.348    21112415.480
 -20023820.517 9 -15602952.860 7  21291588.063    21291584.896
 -10271849.422 5  -8004013.731 4  23099068.003    23099062.882
 98 10  6  0  1 15.0000000  0  7G18G14G31G 3G22G16G19
 -20664742.316 9 -16102368.603 6  21336963.981    21336962.066
   9539297.017 6   7433212.032 5  22482082.083    22482078.503
  -2236140.497 4  -1742441.304 4  24997889.803    24997882.059
  -5706410.309 4  -4446539.217 4  23629803.863    23629800.127
 -20923167.101 9 -16303728.931 6  21118242.931    21118240.897
 -20008451.940 9 -15590977.356 7  21294512.524    21294509.432
 -10308834.255 5  -8032833.017 4  23092029.939    23092025.256
 98 10  6  0  1 30.0000000  0  7G18G14G31G 3G22G16G19
 -20700855.932 9 -16130509.056 6  21330091.752    21330090.017
   9588571.341 6   7471607.573 5  22491458.937    22491454.578
  -2286506.348 4  -1781687.285 4  24988305.016    24988295.955
  -5745045.793 4  -4476644.722 4  23622451.734    23622448.059
 -20892435.431 9 -16279782.177 6  21124091.160    21124088.953
 -19992941.947 9 -15578891.660 7  21297463.900    21297460.967
 -10345783.062 5  -8061624.242 4  23084998.387    23084994.175
 98 10  6  0  1 45.0000000  0  7G18G14G31G 3G22G16G19
 -20736885.140 9 -16158583.732 6  21323235.597    21323233.936
   9637913.608 6   7510056.061 5  22500848.378    22500844.444
  -2336902.446 4  -1820956.813 4  24978715.071    24978706.066
  -5783617.266 4  -4506700.349 4  23615111.511    23615107.400
 -20861582.554 9 -16255740.978 6  21129962.312    21129959.899
 -19977286.638 9 -15566692.732 7  21300443.014    21300440.243
 -10382696.498 5  -8090387.906 4  23077974.145    23077970.027
 98 10  6  0  2  0.0000000  0  7G18G14G31G 3G22G16G19
 -20772835.931 9 -16186597.306 6  21316394.247    21316392.589
   9687314.317 6   7548550.080 5  22510249.796    22510244.434
  -2387332.860 4  -1860253.081 4  24969118.687    24969109.868
  -5822128.575 4  -4536709.101 4  23607782.980    23607778.697
 -20830612.155 9 -16231608.205 6  21135855.777    21135853.466
 -19961485.292 9 -15554380.009 7  21303449.897    21303447.236
 -10419576.744 5  -8119125.710 4  23070955.817    23070951.591
 98 10  6  0  2 15.0000000  0  7G18G14G31G 3G22G16G19
 -20808708.766 9 -16214550.133 6  21309567.903    21309566.253
   9736770.052 6   7587086.977 5  22519660.108    22519655.945
  -2437798.124 4  -1899576.525 4  24959515.787    24959506.711
  -5860580.869 4  -4566671.869 4  23600465.947    23600460.965
 -20799524.324 9 -16207383.922 6  21141771.607    21141769.401
 -19945536.838 9 -15541952.657 7  21306484.823    21306482.027
 -10456422.911 5  -8147836.960 4  23063944.028    23063939.643
 98 10  6  0  2 30.0000000  0  7G18G14G31G 3G22G16G19
 -20844503.266 9 -16242441.920 6  21302756.352    21302754.733
   9786283.211 6   7625668.629 5  22529082.867    22529077.569
  -2488293.785 4  -1938923.656 4  24949906.201    24949897.238
  -5898974.991 4  -4596589.302 4  23593159.419    23593155.002
 -20768315.191 9 -16183065.119 6  21147710.542    21147708.327
 -19929441.866 9 -15529411.132 7  21309547.594    21309544.811
 -10493232.960 5  -8176520.074 4  23056939.134    23056934.873
 98 10  6  0  2 45.0000000  0  7G18G14G31G 3G22G16G19
 -20880222.894 9 -16270275.365 6  21295959.103    21295957.377
   9835847.878 6   7664290.409 5  22538514.383    22538509.885
  -2538822.976 4  -1978296.916 4  24940289.616    24940282.775
  -5937314.569 4  -4626464.239 4  23585863.672    23585859.023
 -20736987.731 9 -16158654.113 6  21153671.915    21153669.867
 -19913204.605 9 -15516758.734 7  21312637.451    21312634.784
 -10530013.107 5  -8205179.891 4  23049939.822    23049935.672
 98 10  6  0  3  0.0000000  0  7G18G14G31G 3G22G16G19
 -20915863.043 9 -16298046.877 6  21289177.030    21289175.295
   9885469.043 6   7702956.218 5  22547957.233    22547952.425
  -2589380.648 4  -2017692.385 4  24930668.938    24930661.829
  -5975593.257 4  -4656291.729 4  23578578.638    23578574.853
 -20705537.528 9 -16134147.460 6  21159656.590    21159654.769
 -19896820.975 9 -15503992.283 7  21315755.150    21315752.442
 -10566764.558 5  -8233817.347 4  23042946.041    23042941.925
 98 10  6  0  3 15.0000000  0  7G18G14G31G 3G22G16G19
 -20951425.134 9 -16325757.565 6  21282409.750    21282407.959
   9935149.903 6   7741668.535 5  22557411.519    22557406.535
  -2639962.197 4  -2057106.461 4  24921043.391    24921033.905
  -6013809.527 4  -4686070.579 4  23571306.264    23571302.465
 -20673964.385 9 -16109545.011 6  21165664.795    21165662.841
 -19880290.069 9 -15491111.070 7  21318900.852    21318898.204
 -10603486.198 5  -8262431.574 4  23035958.239    23035954.250
 98 10  6  0  3 30.0000000  0  7G18G14G31G 3G22G16G19
 -20986911.647 9 -16353409.358 6  21275656.869    21275654.949
   9984891.522 6   7780428.206 4  22566876.193    22566871.779
  -2690564.055 4  -2096536.350 4  24911413.826    24911406.010
  -6051963.932 4  -4715801.223 4  23564045.701    23564041.525
 -20642270.736 9 -16084848.663 6  21171695.943    21171693.778
 -19863611.301 9 -15478114.640 7  21322074.661    21322071.970
 -10640175.152 5  -8291020.331 4  23028976.500    23028972.530
 98 10  6  0  3 45.0000000  0  7G18G14G31G 3G22G16G19
 -21022332.423 9 -16381009.927 6  21268916.519    21268914.627
  10034688.020 6   7819230.638 5  22576352.945    22576347.710
  -2741192.124 4  -2135986.721 4  24901778.793    24901771.868
  -6090062.392 4  -4745488.278 4  23556796.037    23556791.852
 -20610462.418 9 -16060062.963 6  21177748.879    21177746.680
 -19846792.146 9 -15465008.815 7  21325275.167    21325272.422
 -10676836.522 5  -8319587.591 4  23021999.815    23021996.171
 98 10  6 20 40  0.0000000  0  8G22G14G29G15G 1G30G25G21
        -0.89014        -0.51814  24425425.785    24425418.424
        -0.18316        -0.01814  22200644.739    22200640.791
         0.11418         0.26917  21159964.134    21159961.698
        -0.90617        -0.60415  21499116.629    21499112.867
        -0.35715        -0.61814  22477329.044    22477324.601
        -0.21114        -0.07714  23488659.275    23488653.787
        -0.08019         0.32119  20446761.237    20446759.445
        -0.22514        -0.13314  23477685.549    23477679.421
 98 10  6 20 40 15.0000000  0  6G14G29G15G 1G30G25
    -41393.274 6    -32254.330 5  22192767.971    22192763.415
     21538.752 8     16783.608 7  21164062.651    21164060.373
     21134.991 7     16468.910 5  21503138.677    21503134.681
     34003.146 5     26495.582 4  22483799.591    22483795.244
     11435.999 4      8911.255 4  23490835.544    23490829.987
      4441.034 9      3460.931 9  20447606.280    20447604.683
 98 10  6 20 40 30.0000000  0  6G14G29G15G 1G30G25
    -82893.575 6    -64592.187 4  22184870.168    22184866.282
     42957.309 8     33473.377 7  21168138.506    21168136.290
     42248.779 6     32921.195 5  21507156.395    21507152.412
     67863.746 5     52880.433 4  22490243.001    22490238.724
     22855.821 4     17809.814 4  23493008.214    23493003.293
      8826.994 9      6878.562 9  20448440.869    20448439.263
 98 10  6 20 40 45.0000000  0  7G22G14G29G15G 1G30G25
        -0.01214        -0.96714  24394672.722    24394659.226
   -125034.123 6    -97428.945 4  22176851.141    22176847.559
     63723.793 8     49655.040 7  21172090.227    21172088.070
     62802.929 6     48937.399 5  21511067.691    21511063.510
    101046.131 5     78736.808 4  22496557.410    22496553.000
     33719.122 4     26274.735 4  23495075.462    23495070.920
     12622.019 9      9835.727 9  20449162.964    20449161.414
 98 10  6 20 41  0.0000000  0  6G14G29G15G 1G30G25
   -167123.826 6   -130226.078 5  22168842.174    22168837.904
     84529.374 8     65867.163 7  21176049.465    21176047.095
     83486.177 6     65054.195 5  21515003.699    21514999.314
    134237.323 5    104600.042 4  22502873.727    22502869.188
     44714.319 4     34842.417 4  23497167.979    23497163.401
     16518.382 9     12871.856 9  20449904.428    20449902.957
 98 10  6 20 41 15.0000000  0  7G14G29G15G 1G30G21G25
   -209283.954 6   -163078.086 5  22160818.936    22160814.950
    105255.620 8     82017.469 7  21179993.607    21179991.242
    104180.444 6     81179.577 5  21518941.662    21518937.677
    167320.295 5    130378.945 4  22509169.144    22509164.796
     55721.852 4     43419.724 4  23499262.649    23499258.115
        -0.65314        -0.41114  23526474.154    23526469.856
     20398.870 9     15895.615 9  20450642.827    20450641.320
 98 10  6 20 41 30.0000000  0  6G14G29G15G 1G30G25
   -251377.590 6   -195878.289 4  22152808.428    22152804.898
    126039.938 8     98213.028 7  21183948.782    21183946.456
    125023.612 6     97420.987 5  21522907.950    21522904.126
    200433.533 5    156181.439 4  22515470.286    22515465.854
     66877.098 4     52112.127 4  23501385.264    23501380.942
     24403.273 9     19015.930 9  20451404.813    20451403.160
 98 10  6 20 41 45.0000000  0  6G14G29G15G 1G30G25
   -293399.891 6   -228622.904 5  22144811.980    22144808.334
    146887.432 8    114457.814 6  21187915.812    21187913.521
    146023.591 6    113784.586 5  21526904.113    21526900.115
    233584.129 5    182013.046 4  22521778.499    22521774.188
     78185.420 4     60923.811 4  23503537.124    23503532.716
     28542.211 9     22241.078 9  20452192.485    20452190.821
 98 10  6 20 42  0.0000000  0  7G22G14G29G15G 1G25G30
        -0.61814        -0.41714  24342758.434    24342750.861
   -335347.309 6   -261309.170 5  22136829.662    22136825.841
    167802.224 8    130755.040 6  21191895.822    21191893.284
    167183.466 6    130272.778 5  21530930.720    21530926.490
    266775.796 5    207876.654 4  22528094.876    22528090.271
     32821.904 9     25575.907 9  20453006.914    20453005.201
     89649.195 4     69856.627 4  23505718.898    23505713.506
 98 10  6 20 42 15.0000000  0  7G14G29G15G 1G30G21G25
   -377212.945 6   -293931.710 5  22128862.602    22128858.730
    188792.685 8    147111.229 6  21195890.358    21195887.772
    188510.698 7    146891.378 5  21534989.119    21534985.150
    300020.514 5    233781.597 4  22534421.218    22534416.795
    101277.362 4     78917.541 4  23507931.973    23507926.079
        -0.33314         0.12714  23565394.974    23565390.626
     37251.248 9     29027.343 9  20453849.865    20453848.103
 98 10  6 20 42 30.0000000  0  6G14G29G15G 1G30G25
   -419012.810 6   -326503.003 5  22120908.531    22120904.258
    209847.156 7    163517.298 6  21199896.991    21199894.446
    209990.305 7    163628.712 5  21539076.475    21539072.658
    333307.987 5    259719.860 4  22540755.788    22540751.503
    113054.830 4     88094.785 4  23510172.995    23510167.378
     41815.953 9     32584.257 9  20454718.573    20454716.863
 98 10  6 20 42 45.0000000  0  7G22G14G29G15G 1G25G30
         0.20914        -0.39814  24311606.764    24311608.889
   -460733.084 6   -359012.269 5  22112969.559    22112965.431
    230977.225 7    179982.274 6  21203917.774    21203915.204
    231634.779 7    180494.516 5  21543195.216    21543191.333
    366653.295 5    285703.192 4  22547101.391    22547096.966
     46528.784 9     36256.595 9  20455615.321    20455613.605
    124992.972 4     97397.234 4  23512444.869    23512439.522
 98 10  6 20 43  0.0000000  0  7G14G29G15G 1G30G21G25
   -502381.185 6   -391465.305 5  22105044.148    22105040.150
    252176.018 7    196500.801 7  21207951.851    21207949.342
    253440.112 7    197485.662 5  21547344.612    21547340.793
    400049.658 5    311726.306 4  22553456.415    22553452.076
    137083.728 4    106818.601 4  23514745.479    23514740.266
        -0.55114        -0.52014  23594733.145    23594726.065
     51386.264 9     40041.647 9  20456539.696    20456537.807
 98 10  6 20 43 15.0000000  0  7G14G29G15G 1G30G25G21
   -543940.736 6   -423849.337 5  22097135.798    22097131.758
    273459.887 7    213085.621 7  21212002.117    21211999.621
    275426.903 7    214618.204 5  21551528.701    21551524.646
    433519.050 5    337806.324 4  22559825.320    22559820.822
    149350.655 4    116377.239 4  23517079.500    23517074.200
     56405.900 9     43953.056 9  20457494.758    20457492.977
     51557.502 4     40174.487 4  23604543.150    23604535.949
 98 10  6 20 43 30.0000000  0  8G22G14G29G15G 1G25G30G21
         0.05314        -0.28314  24280500.280    24280494.043
   -585446.109 6   -456191.156 5  22089237.176    22089233.602
    294794.440 7    229709.935 7  21216061.960    21216059.410
    297560.896 6    231865.451 5  21555740.762    21555736.424
    467029.098 5    363918.028 4  22566202.065    22566197.568
     61551.960 9     47962.977 9  20458474.100    20458472.291
    161760.274 4    126047.068 4  23519441.010    23519436.058
    103181.924 4     80401.200 4  23614366.435    23614360.439
 98 10  6 20 43 45.0000000  0  6G14G29G15G 1G30G25
   -626893.019 6   -488487.423 5  22081349.998    22081346.704
    316181.375 7    246375.066 7  21220131.680    21220129.278
    319842.893 6    249228.021 5  21559980.870    21559976.423
    500581.137 5    390062.451 4  22572587.017    22572582.507
    174315.700 4    135830.508 4  23521830.290    23521825.371
     66823.167 9     52070.417 9  20459477.128    20459475.371
 98 10  6 20 44  0.0000000  0  6G14G29G15G 1G30G25
   -668271.740 6   -520730.553 5  22073476.506    22073472.464
    337631.953 7    263089.791 6  21224213.553    21224211.079
    342282.109 6    266713.103 5  21564251.002    21564246.607
    534185.338 5    416247.517 4  22578981.488    22578977.078
    187028.607 4    145736.660 4  23524248.615    23524244.629
     72225.020 9     56279.658 9  20460505.074    20460503.327
 98 10  6 20 44 15.0000000  0  8G22G14G29G15G 1G25G30G21
        -0.95514        -0.89714  24249403.870    24249396.438
   -709537.964 6   -552886.019 5  22065623.387    22065619.700
    359192.175 7    279889.952 6  21228316.328    21228313.853
    364921.834 6    284354.426 5  21568559.464    21568555.110
    567886.734 5    442508.318 4  22585394.651    22585389.745
     77798.326 9     60622.499 9  20461565.624    20461563.905
    199946.080 4    155802.218 4  23526707.735    23526703.109
        -0.03114         0.45814  23643927.766    23643919.596
 98 10  6 20 44 30.0000000  0  7G14G29G15G 1G30G21G25
   -750759.901 6   -585006.985 5  22057778.957    22057775.306
    380795.071 7    296723.365 6  21232427.121    21232424.658
    387695.607 6    302100.202 5  21572893.406    21572888.718
    601619.089 5    468793.243 4  22591814.029    22591808.871
    213000.687 4    165974.629 4  23529192.435    23529187.113
     51931.568 4     40466.555 4  23653811.392    23653801.508
     83477.153 9     65047.563 9  20462646.284    20462644.667
 98 10  6 20 44 45.0000000  0  7G14G29G15G 1G30G21G25
   -791946.174 6   -617100.157 5  22049941.635    22049937.539
    402427.535 7    313579.822 6  21236543.555    21236541.077
    410591.078 6    319940.807 5  21577250.322    21577245.588
    635366.830 5    495090.157 4  22598236.165    22598231.066
    226180.539 4    176244.633 4  23531700.535    23531694.920
    103901.946 4     80962.848 4  23663697.377    23663691.268
     89248.334 9     69544.592 9  20463744.442    20463742.854
 98 10  6 20 45  0.0000000  0  6G14G29G15G 1G30G25
   -833069.731 6   -649144.454 5  22042116.057    22042111.987
    424115.908 7    330479.842 6  21240670.946    21240668.374
    433634.325 6    337896.562 5  21581635.275    21581630.599
    669153.820 5    521417.649 4  22604665.617    22604660.564
    239514.109 4    186634.417 4  23534237.329    23534232.108
     95137.065 9     74133.219 9  20464865.063    20464863.336
 98 10  6 20 45 15.0000000  0  7G22G14G25G29G15G 1G30
         0.43214         0.30614  24207955.734    24207948.147
   -874116.145 6   -681128.643 5  22034305.140    22034301.094
    101156.748 9     78823.884 9  20466010.559    20466008.684
    445875.929 7    347435.689 6  21244811.672    21244809.040
    456840.138 6    355978.992 5  21586051.096    21586046.799
    702994.366 5    547786.876 4  22611105.241    22611100.376
    253021.028 4    197159.279 4  23536807.261    23536802.505
 98 10  6 20 45 30.0000000  0  7G14G29G15G 1G30G21G25
   -915107.293 6   -713069.766 5  22026504.937    22026500.840
    467679.541 7    364425.507 6  21248960.649    21248958.082
    480181.321 6    374166.903 5  21590492.663    21590488.440
    736860.609 5    574176.122 4  22617549.826    22617544.794
    266675.430 4    207799.056 4  23539405.836    23539400.424
        -0.77014        -0.16914  23693444.486    23693440.208
    107280.129 9     83595.353 9  20467175.910    20467173.921
 98 10  6 20 45 45.0000000  0  6G14G29G15G 1G30G25
   -956037.703 6   -744963.566 5  22018715.892    22018712.068
    489531.369 7    381452.897 6  21253118.964    21253116.272
    503659.245 6    392461.369 5  21594960.153    21594956.040
    770752.412 5    600585.292 4  22623999.236    22623994.536
    280475.160 4    218552.065 4  23542031.643    23542026.401
    113509.912 9     88449.731 9  20468361.381    20468359.396
 98 10  6 20 46  0.0000000  0  7G22G14G25G29G15G 1G30
        -0.41914        -0.16814  24176869.219    24176862.883
   -996900.591 6   -776804.744 5  22010940.319    22010935.570
    119856.354 9     93395.012 9  20469569.095    20469567.157
    511439.278 7    398523.982 6  21257288.090    21257285.226
    527282.068 6    410868.743 5  21599455.405    21599451.158
    804677.526 5    627020.418 4  22630454.994    22630450.361
    294426.185 4    229422.964 4  23544686.346    23544681.114
 98 10  6 20 46 15.0000000  0  7G14G29G15G 1G30G21G25
  -1037676.822 6   -808578.393 5  22003180.819    22003176.409
    533421.279 7    415652.805 6  21261471.207    21261468.357
    551070.152 6    429404.892 5  21603982.237    21603977.683
    838656.279 5    653497.341 4  22636921.227    22636916.257
    308546.068 4    240425.453 4  23547373.233    23547368.089
        -0.11714         0.16014  23723300.755    23723292.243
    126343.287 9     98449.765 9  20470803.531    20470801.637
 98 10  6 20 46 30.0000000  0  7G14G29G15G 1G30G25G21
  -1078397.617 6   -840308.853 5  21995431.524    21995427.418
    555440.608 7    432810.715 6  21265661.312    21265658.647
    574989.169 6    448043.068 5  21608533.958    21608529.892
    872653.371 5    679988.548 4  22643390.615    22643385.087
    322795.718 4    251529.055 4  23550085.254    23550079.644
    132939.011 9    103589.290 9  20472058.669    20472056.884
     52412.836 4     40841.313 4  23733273.086    23733266.793
 98 10  6 20 46 45.0000000  0  8G22G14G29G15G 1G25G30G21
        -0.10414        -0.63614  24145787.075    24145792.777
  -1119064.792 6   -871997.527 5  21987693.038    21987688.457
    577490.690 7    449992.587 6  21269857.223    21269854.586
    599033.501 6    466778.893 5  21613109.352    21613105.667
    906661.093 5    706488.032 4  22649861.924    22649856.712
    139638.731 9    108809.849 9  20473333.620    20473331.851
    337166.772 4    262727.255 4  23552820.038    23552814.811
    104866.756 4     81714.386 4  23743254.435    23743248.101
 98 10  6 20 47  0.0000000  0  7G14G29G15G 1G30G21G25
  -1159670.321 6   -903638.162 5  21979966.139    21979961.455
    599580.594 7    467205.487 6  21274060.867    21274058.516
    623210.656 6    485618.212 5  21617710.027    21617706.417
    940686.294 5    733001.143 4  22656336.554    22656331.607
    351667.772 4    274026.710 4  23555579.358    23555574.099
    157367.442 4    122623.909 4  23753243.401    23753238.763
    146447.136 9    114115.099 9  20474629.328    20474627.398
 98 10  6 20 47 15.0000000  0  7G14G29G25G15G 1G30G21
  -1200220.934 6   -935236.004 5  21972249.527    21972245.297
    621705.148 7    484445.389 6  21278271.010    21278268.542
    153361.362 9    119502.805 9  20475945.072    20475943.113
    647517.196 6    504558.353 5  21622335.483    21622331.679
    974725.792 5    759525.399 4  22662814.014    22662809.271
    366295.403 4    285424.845 4  23558362.857    23558357.812
    209911.011 4    163566.839 4  23763242.103    23763237.933
 98 10  6 20 47 30.0000000  0  7G22G14G29G15G 1G30G25
         0.40714         0.26914  24114723.497    24114718.317
  -1240705.648 6   -966782.499 5  21964545.441    21964541.281
    643871.714 7    501718.024 6  21282489.110    21282486.675
    671962.201 6    523606.387 5  21626987.431    21626983.400
   1008788.278 5    786067.561 4  22669296.135    22669291.033
    381057.548 4    296927.789 4  23561172.281    23561167.175
    160392.564 9    124981.660 9  20477283.077    20477281.066
 98 10  6 20 47 45.0000000  0  6G14G29G15G 1G30G25
  -1281125.109 6   -998278.142 5  21956853.864    21956849.882
    666082.549 7    519025.160 6  21286715.533    21286713.421
    696544.797 6    542761.637 5  21631665.426    21631661.390
   1042873.635 5    812627.545 4  22675782.402    22675777.421
    395951.383 4    308533.357 4  23564007.052    23564001.820
    167542.667 9    130553.166 9  20478643.615    20478641.636
 98 10  6 20 48  0.0000000  0  7G14G29G25G15G 1G30G21
  -1321477.359 7  -1029721.419 5  21949174.902    21949171.378
    688342.537 7    536370.595 6  21290951.560    21290949.264
    174816.965 9    136221.448 9  20480027.783    20480025.958
    721268.385 7    562026.746 5  21636370.306    21636365.867
   1076987.939 5    839210.082 4  22682274.484    22682268.770
    410983.685 4    320246.823 4  23566867.932    23566862.414
        -0.19514        -0.82914  23793296.581    23793292.638
 98 10  6 20 48 15.0000000  0  7G22G14G29G15G 1G30G25
        -0.11214        -0.25614  24083663.049    24083657.678
  -1361747.813 7  -1061100.954 5  21941511.791    21941507.659
    710663.208 7    553763.315 6  21295199.252    21295196.855
    746147.784 6    581413.269 5  21641104.629    21641100.072
   1111143.372 5    865824.666 4  22688774.087    22688768.629
    426171.957 4    332081.813 4  23569757.973    23569752.393
    182230.300 9    141998.070 9  20481438.399    20481436.789
 98 10  6 20 48 30.0000000  0  6G14G29G15G 1G30G25
  -1401953.663 7  -1092430.147 5  21933860.705    21933856.863
    733023.555 7    571186.950 6  21299454.372    21299451.792
    771160.536 6    600903.705 5  21645864.323    21645860.038
   1145317.649 5    892453.941 4  22695277.142    22695271.943
    441495.482 4    344022.198 4  23572674.140    23572668.414
    189759.293 9    147864.815 9  20482870.927    20482869.309
 98 10  6 20 48 45.0000000  0  7G14G29G15G 1G30G25G21
  -1442084.180 7  -1123700.640 5  21926223.988    21926220.229
    755435.092 7    588650.473 6  21303719.046    21303716.622
    796314.960 6    620504.532 5  21650650.916    21650646.873
   1179518.197 5    919103.687 4  22701785.203    22701780.307
    456966.082 4    356077.173 4  23575618.047    23575611.872
    197410.367 9    153826.688 9  20484327.017    20484325.317
        -0.35514        -0.42414  23823440.389    23823442.456
 98 10  6 20 49  0.0000000  0  7G22G14G29G15G 1G30G25
        -0.11014        -0.30414  24052616.386    24052611.120
  -1482149.156 7  -1154920.061 5  21918600.101    21918596.090
    777891.339 7    606148.835 6  21307992.235    21307989.984
    821602.587 6    640209.153 5  21655462.909    21655459.049
   1213737.733 5    945768.228 4  22708296.954    22708292.219
    472579.376 4    368243.347 4  23578589.027    23578583.187
    205173.632 9    159875.981 9  20485804.433    20485802.563
 98 10  6 20 49 15.0000000  0  6G14G29G15G 1G30G25
  -1522150.406 7  -1186089.828 5  21910988.007    21910983.925
    800391.680 7    623681.554 6  21312273.968    21312271.449
    847023.694 6    660017.786 5  21660300.333    21660297.169
   1247978.070 5    972448.978 4  22714812.663    22714807.571
    488336.203 4    380521.373 4  23581587.810    23581581.442
    213051.419 9    166014.514 9  20487303.549    20487301.622
 98 10  6 20 49 30.0000000  0  7G14G29G15G 1G30G21G25
  -1562083.026 7  -1217206.113 5  21903388.925    21903384.979
    822939.087 7    641250.947 6  21316564.685    21316562.110
    872579.316 7    679931.235 5  21665163.521    21665160.127
   1282241.565 5    999147.772 4  22721333.022    22721327.912
    504235.303 4    392910.260 4  23584612.984    23584607.298
         0.37814         0.19914  23853681.441    23853676.473
    221047.978 9    172245.595 9  20488825.245    20488823.332
 98 10  6 20 49 45.0000000  0  6G14G29G15G 1G30G25
  -1601932.806 7  -1248257.848 5  21895805.738    21895802.150
    845548.950 7    658869.004 6  21320867.221    21320864.647
    898281.465 7    699958.857 5  21670054.538    21670051.223
   1316543.087 5   1025876.196 4  22727860.471    22727855.146
    520286.791 4    405417.888 4  23587667.518    23587661.521
    229174.189 9    178577.704 9  20490371.483    20490369.590
 98 10  6 20 50  0.0000000  0  6G14G29G25G15G 1G30
  -1641709.239 7  -1279252.435 5  21888236.448    21888232.783
    868211.792 7    676528.343 6  21325179.830    21325177.186
    237417.279 9    185000.886 9  20491940.010    20491938.149
    924120.464 7    720093.117 5  21674971.755    21674968.241
   1350873.865 5   1052627.418 4  22734393.255    22734388.238
    536480.729 4    418036.523 4  23590749.014    23590743.395
 98 10  6 20 50 15.0000000  0  8G22G14G25G29G15G 1G30G21
        -0.51014        -0.43714  24000898.758    24000892.848
  -1681404.777 7  -1310183.983 5  21880682.826    21880678.859
    245781.030 9    191518.093 9  20493531.719    20493529.953
    890932.114 7    694232.475 6  21329503.373    21329500.797
    950103.325 7    740339.475 5  21679916.262    21679912.499
   1385239.873 5   1079406.093 4  22740932.846    22740928.025
    552824.262 4    430771.727 4  23593859.062    23593853.133
        -0.31314         0.27114  23884014.720    23884009.519
 98 10  6 20 50 30.0000000  0  6G14G29G15G 1G30G25
  -1721034.081 7  -1341063.920 5  21873141.527    21873137.499
    913697.386 7    711971.631 6  21333835.471    21333832.808
    976216.431 7    760687.323 5  21684885.376    21684881.497
   1419629.936 5   1106203.513 4  22747477.065    22747472.869
    569303.679 4    443612.806 4  23596994.947    23596989.215
    254251.198 9    198118.223 9  20495143.625    20495141.882
 98 10  6 20 50 45.0000000  0  6G14G29G15G 1G25G30
  -1760594.269 7  -1371890.003 5  21865613.287    21865609.694
    936512.338 7    729749.498 6  21338176.982    21338174.299
   1002462.979 7    781139.151 5  21689880.104    21689876.245
   1454051.398 5   1133025.399 4  22754027.422    22754022.947
    262831.703 9    204804.329 9  20496776.466    20496774.694
    585924.581 4    456564.126 4  23600157.598    23600152.412
 98 10  6 20 51  0.0000000  0  8G22G14G25G29G15G 1G30G21
        -0.27614         0.01714  23969888.769    23969878.991
  -1800092.157 7  -1402667.543 5  21858097.128    21858093.191
    271519.631 9    211574.141 9  20498429.630    20498427.809
    959372.240 7    747562.391 6  21342527.240    21342524.550
   1028840.423 7    801692.979 5  21694899.639    21694895.626
   1488502.321 5   1159870.243 4  22760583.227    22760579.045
    602684.817 4    469624.031 4  23603346.833    23603341.923
        -0.70214        -0.49714  23914440.966    23914436.120
 98 10  6 20 51 15.0000000  0  7G22G14G29G15G 1G30G25
    -54314.292 4    -42322.461 4  23959550.456    23959543.089
  -1839520.262 7  -1433390.703 5  21850594.306    21850590.300
    982284.704 7    765416.244 6  21346887.524    21346884.809
   1055357.652 6    822355.730 5  21699945.988    21699941.777
   1522993.002 5   1186746.065 4  22767146.750    22767142.297
    619592.305 4    482798.678 4  23606564.176    23606559.836
    280325.307 9    218435.706 9  20500105.153    20500103.374
 98 10  6 20 51 30.0000000  0  7G22G14G29G15G25G 1G30
   -108631.242 4    -84647.248 4  23949211.610    23949207.006
  -1878889.166 7  -1464067.737 5  21843102.329    21843098.803
   1005237.767 7    783301.730 6  21351255.318    21351252.613
   1082002.736 6    843118.106 5  21705016.310    21705012.029
    289237.125 9    225379.980 9  20501801.106    20501799.390
   1557511.003 5   1213643.175 4  22773715.154    22773710.361
    636635.457 4    496079.040 4  23609807.132    23609803.042
 98 10  6 20 51 45.0000000  0  7G14G29G15G 1G30G21G25
  -1918199.081 7  -1494698.808 5  21835621.844    21835618.111
   1028229.956 7    801217.704 6  21355630.492    21355627.806
   1108774.443 6    863979.151 5  21710110.797    21710106.379
   1592054.638 5   1240560.262 4  22780288.676    22780284.245
    653814.404 4    509465.208 4  23613076.182    23613071.625
        -0.13514         0.42714  23944952.315    23944945.719
    298250.909 9    232403.706 9  20503516.453    20503514.534
 98 10  6 20 52  0.0000000  0  6G14G29G15G 1G30G25
  -1957445.848 7  -1525280.669 5  21828153.520    21828149.684
   1051265.043 7    819167.106 6  21360013.858    21360011.277
   1135677.497 6    884942.544 5  21715230.386    21715225.937
   1626628.143 5   1267500.623 4  22786867.903    22786863.352
    671136.015 4    522962.548 4  23616372.377    23616367.513
    307370.127 9    239509.590 9  20505251.757    20505249.749
 98 10  6 20 52 15.0000000  0  7G22G14G25G29G15G 1G30
         0.17714         0.38614  23918212.551    23918201.945
  -1996614.063 7  -1555801.324 5  21820699.952    21820696.025
    316612.454 9    246711.403 9  20507010.515    20507008.568
   1074356.426 7    837160.374 6  21364407.972    21364405.654
   1162725.865 6    906019.166 5  21720377.434    21720372.845
   1661242.830 5   1294473.068 4  22793454.860    22793449.765
    688616.624 4    536583.783 4  23619699.108    23619693.879
 98 10  6 20 52 30.0000000  0  8G22G14G29G15G25G 1G30G21
    -54286.448 4    -42300.750 4  23907881.989    23907872.779
  -2035720.143 7  -1586273.560 5  21813258.316    21813254.509
   1097489.135 7    855185.847 6  21368809.998    21368807.673
   1189903.473 6    927196.494 5  21725548.994    21725544.667
    325966.816 9    254000.514 9  20508790.618    20508788.839
   1695885.438 5   1321467.269 4  22800047.243    22800042.007
    706240.453 4    550316.626 4  23623052.976    23623047.843
        -0.18214         0.36914  23975543.207    23975537.388
 98 10  6 20 52 45.0000000  0  7G22G14G29G15G 1G30G25
   -108578.933 4    -84606.469 4  23897550.036    23897541.275
  -2074777.108 7  -1616707.527 5  21805825.732    21805821.753
   1120649.326 7    873232.731 6  21373217.409    21373214.754
   1217194.871 6    948462.491 5  21730742.294    21730737.945
   1730542.757 5   1348472.937 4  22806642.357    22806637.631
    723992.002 4    564148.989 4  23626431.193    23626426.031
    335421.384 9    261367.709 9  20510589.720    20510588.194
 98 10  6 20 53  0.0000000  0  7G22G14G25G29G15G 1G30
   -162861.856 4   -126904.727 4  23887219.471    23887210.353
  -2113766.789 7  -1647089.067 5  21798406.200    21798402.554
    344991.731 9    268825.123 9  20512410.924    20512409.346
   1143850.980 7    891311.924 6  21377632.627    21377630.079
   1244615.003 6    969828.802 5  21735960.160    21735956.112
   1765226.705 5   1375499.352 4  22813242.368    22813237.401
    741882.635 4    578089.720 4  23629835.960    23629830.801
 98 10  6 20 53 15.0000000  0  8G22G14G25G29G15G 1G30G21
   -217128.163 4   -169190.031 4  23876890.925    23876882.645
  -2152681.717 7  -1677412.356 5  21791001.137    21790997.008
    354682.136 9    276376.088 9  20514254.971    20514253.251
   1167101.731 7    909429.374 6  21382056.839    21382054.432
   1272169.329 6    991299.677 5  21741203.473    21741199.408
   1799939.535 5   1402548.278 4  22819848.083    22819843.430
    759915.908 4    592141.606 4  23633267.866    23633262.384
        -0.37714        -0.74214  24006212.228    24006206.711
 98 10  6 20 53 30.0000000  0  6G14G29G15G 1G30G25
  -2191528.711 7  -1707682.713 5  21783608.611    21783604.874
   1190394.470 7    927579.544 6  21386489.306    21386486.903
   1299848.136 6   1012867.549 5  21746470.555    21746466.774
   1834671.471 5   1429612.092 4  22826457.599    22826452.495
    778082.192 4    606297.135 4  23636724.779    23636718.695
    364482.553 9    284012.775 9  20516120.002    20516118.184
 98 10  6 20 53 45.0000000  0  6G14G29G15G 1G30G25
  -2230305.133 7  -1737898.080 5  21776229.804    21776226.060
   1213730.868 7    945763.731 6  21390930.163    21390927.577
   1327653.091 6   1034533.717 5  21751761.707    21751758.056
   1869424.527 5   1456692.361 4  22833070.900    22833066.042
    796383.024 4    620557.507 4  23640207.405    23640201.237
    374394.907 9    291736.685 9  20518006.318    20518004.372
 98 10  6 20 57  0.0000000  0  9G16G22G14G25G29G15G 1G30G21
        -0.19214        -0.17114  25217006.808    25217001.475
        -0.26414        -0.65514  23722216.901    23722210.572
         0.47817         0.18615  21681525.825    21681522.146
        -0.85819        -0.64719  20544378.070    20544376.449
         0.10117        -0.05916  21449423.745    21449420.928
         0.34216         0.40015  21822719.379    21822714.173
        -0.54815        -0.48814  22919478.967    22919473.815
        -0.25414        -0.43714  23687719.530    23687716.439
        -0.07314        -0.04914  24160763.129    24160758.002
 98 10  6 21  0  0.0000000  0  8G16G22G25G29G15G 1G30G21
        -0.54614        -0.49014  25097585.739    25097579.213
        -0.36014        -0.04114  23599011.071    23599002.278
         0.38219         0.30319  20571871.702    20571870.024
        -0.20817         0.14016  21504790.068    21504787.516
        -0.07616        -0.84815  21891845.217    21891840.024
         0.43615         0.37814  23000039.826    23000034.368
        -0.34014         0.49714  23735499.873    23735497.374
        -0.57814        -0.52814  24285886.528    24285882.138
 98 10  6 21  0 15.0000000  0  6G22G14G29G15G 1G25
    -53913.232 4    -42009.937 4  23588751.456    23588743.249
        -0.97117        -0.43915  21589253.603    21589249.935
     24455.701 7     19056.677 6  21509443.870    21509441.384
     30981.389 6     24140.519 5  21897740.653    21897735.902
     35334.061 5     27533.029 4  23006763.708    23006758.773
     12694.938 9      9892.164 9  20574287.269    20574285.897
 98 10  6 21  0 30.0000000  0  6G22G14G25G29G15G 1
   -107791.987 4    -83993.255 4  23578498.221    23578490.719
    -36802.300 7    -28676.770 5  21582250.350    21582246.808
     25503.637 9     19872.969 9  20576724.674    20576723.375
     48964.937 7     38154.769 6  21514107.836    21514105.411
     62094.841 6     48384.736 5  21903661.193    21903657.108
     70699.644 5     55090.586 4  23013493.421    23013488.786
 98 10  6 21  0 45.0000000  0  9G16G22G14G25G29G15G 1G30G21
        -0.96914        -0.26914  25067722.254    25067711.683
   -161558.205 4   -125888.884 4  23568267.152    23568259.149
    -73435.117 7    -57221.794 5  21575279.260    21575275.561
     38507.523 9     30005.869 9  20579199.241    20579197.937
     73609.040 7     57357.953 6  21518797.485    21518794.962
     93421.408 6     72795.017 5  21909622.414    21909618.008
    106178.961 5     82736.760 4  23020245.014    23020240.514
        -0.26714        -0.41314  23747995.060    23747991.843
        -0.02514        -0.12114  24317308.743    24317303.009
 98 10  6 21  1  0.0000000  0  7G22G14G29G15G 1G30G25
   -215314.401 4   -167776.682 4  23558038.112    23558028.833
   -110004.076 7    -85717.057 5  21568320.593    21568316.808
     98284.234 7     76585.367 6  21523493.086    21523490.343
    124856.759 6     97290.065 5  21915604.157    21915599.818
    141671.123 5    110392.946 4  23026999.096    23026994.335
     22199.851 4     17298.368 4  23752220.695    23752216.129
     51600.203 9     40207.960 9  20581690.778    20581689.352
 98 10  6 21  1 15.0000000  0  7G22G14G29G25G15G 1G30
   -269014.433 4   -209620.714 4  23547818.105    23547810.652
   -146465.209 8   -114128.302 5  21561382.321    21561378.264
    123035.802 7     95872.288 6  21528203.308    21528200.170
     64825.669 9     50513.515 9  20584207.500    20584205.976
    156446.304 6    121905.265 5  21921615.560    21921611.209
    177223.133 5    138095.763 4  23033764.665    23033759.496
     44566.047 4     34726.566 4  23756477.230    23756472.770
 98 10  6 21  1 30.0000000  0  8G22G14G25G29G15G 1G30G21
   -322680.151 4   -251438.054 4  23537604.372    23537598.712
   -182836.674 8   -142469.675 5  21554460.967    21554457.077
     78163.806 9     60906.869 9  20586745.728    20586744.169
    147842.128 7    115201.878 6  21532923.820    21532920.780
    188169.083 6    146624.278 5  21927652.441    21927647.524
    212815.331 5    165829.892 4  23040537.377    23040532.355
     67077.843 4     52268.207 4  23760761.654    23760757.440
        -0.51714        -0.43214  24348845.134    24348839.979
 98 10  6 21  1 45.0000000  0  8G16G22G14G25G29G15G 1G30
        -0.09814        -0.12214  25027944.734    25027954.117
   -376290.080 4   -293211.915 4  23527402.515    23527395.899
   -219093.544 8   -170721.753 5  21547561.445    21547557.611
     91636.489 9     71405.062 9  20589309.507    20589307.771
    172725.183 7    134591.259 6  21537658.896    21537656.061
    220047.544 6    171464.604 5  21933718.645    21933713.930
    248471.260 5    193613.686 4  23047322.524    23047317.834
     89759.311 4     69942.054 4  23765077.622    23765073.507
 98 10  6 21  2  0.0000000  0  7G22G14G29G25G15G 1G30
   -429902.658 4   -334987.835 4  23517201.758    23517194.729
   -255297.078 8   -198932.272 5  21540672.106    21540668.395
    197628.877 7    153996.722 6  21542397.972    21542394.959
    105184.012 9     81961.572 9  20591887.525    20591885.784
    252022.302 6    196379.968 5  21939803.304    21939798.924
    284131.591 5    221400.910 4  23054108.632    23054103.558
    112553.080 4     87703.409 4  23769415.528    23769410.497
 98 10  6 21  2 15.0000000  0  8G22G14G25G29G15G 1G30G21
   -483480.585 4   -376736.756 4  23507006.412    23506997.953
   -291411.952 8   -227073.706 5  21533799.513    21533796.170
    118841.000 9     92603.379 9  20594486.489    20594484.634
    222587.280 7    173444.818 6  21547147.507    21547144.451
    284127.582 6    221397.036 5  21945912.756    21945908.669
    319831.820 5    249219.229 4  23060902.236    23060897.256
    135493.800 4    105579.274 4  23773780.703    23773775.526
         0.12214        -0.20514  24380480.682    24380475.338
 98 10  6 21  2 30.0000000  0  8G16G22G14G25G29G15G 1G30
        -0.69214        -0.27614  24998153.147    24998147.404
   -537044.163 4   -418474.473 4  23496813.572    23496803.210
   -327457.741 8   -255161.311 5  21526940.295    21526936.976
    132588.663 9    103315.841 9  20597102.639    20597100.777
    247576.614 7    192917.014 6  21551902.885    21551899.805
    316342.134 6    246499.248 5  21952043.061    21952038.730
    355550.621 5    277052.015 4  23067699.096    23067694.685
    158559.761 4    123552.722 4  23778170.208    23778164.499
 98 10  6 21  2 45.0000000  0  7G22G14G29G25G15G 1G30
   -590614.111 4   -460217.143 4  23486620.550    23486610.907
   -363451.938 8   -283208.711 5  21520090.933    21520087.299
    272581.780 7    212401.549 6  21556661.116    21556658.275
    146412.890 9    114087.964 9  20599733.225    20599731.499
    348647.577 6    271672.286 5  21958190.593    21958186.023
    391270.096 5    304885.327 4  23074496.444    23074491.624
    181733.588 4    141610.228 4  23782579.847    23782574.243
 98 10  6 21  3  0.0000000  0  8G22G14G25G29G15G 1G30G21
   -644162.852 4   -501943.322 4  23476429.958    23476421.489
   -399368.801 8   -311195.852 5  21513256.108    21513252.661
    160339.285 9    124939.698 9  20602383.390    20602381.609
    297630.176 7    231919.770 6  21561427.622    21561424.673
    381069.528 6    296936.110 5  21964360.256    21964355.529
    427017.765 5    332740.608 4  23081298.886    23081294.332
    205040.461 4    159771.398 4  23787014.879    23787010.006
        -0.69414        -0.29214  24412167.799    24412161.162
 98 10  6 21  3 15.0000000  0  8G16G22G14G25G29G15G 1G30
         0.01414        -0.14714  24968353.322    24968330.564
   -697702.966 4   -543662.776 4  23466240.685    23466232.264
   -435224.527 8   -339135.353 6  21506432.953    21506429.251
    174353.491 9    135859.858 9  20605050.158    20605048.361
    322707.835 7    251460.790 6  21566199.749    21566196.768
    413591.842 6    322278.137 5  21970549.247    21970544.342
    462776.473 5    360604.492 4  23088103.891    23088098.959
    228463.758 4    178023.300 4  23791472.865    23791467.088
 98 10  6 21  3 30.0000000  0  7G22G14G29G15G25G 1G30
   -751209.378 4   -585355.971 4  23456057.978    23456050.586
   -470993.234 8   -367007.046 6  21499626.574    21499622.903
    347840.049 7    271044.320 6  21570982.316    21570979.487
    446237.986 6    347716.655 5  21976761.762    21976756.609
    188481.415 9    146868.628 9  20607738.713    20607736.845
    498567.131 5    388493.272 4  23094914.164    23094909.633
    252025.079 4    196382.752 4  23795956.294    23795951.055
 98 10  6 21  3 45.0000000  0  8G22G14G29G25G15G 1G30G21
   -804685.749 4   -627025.786 4  23445880.526    23445874.879
   -506679.046 8   -394814.148 6  21492835.591    21492831.979
    373021.637 7    290666.326 6  21575774.130    21575771.276
    202716.089 9    157960.581 9  20610447.416    20610445.594
    479001.629 6    373246.730 5  21982996.578    21982991.378
    534383.521 5    416402.103 4  23101729.945    23101725.389
    275717.801 4    214844.588 4  23800465.035    23800460.042
         0.31514         0.02514  24443901.128    24443894.052
 98 10  6 21  4  0.0000000  0  7G22G14G29G25G15G 1G30
   -858141.073 4   -668679.163 4  23435710.173    23435702.134
   -542295.635 8   -422567.313 6  21486058.042    21486054.354
    398243.820 7    310319.962 6  21580573.616    21580570.659
    217044.790 9    169125.800 9  20613174.100    20613172.188
    511871.202 6    398859.348 5  21989251.620    21989246.132
    570212.780 5    444320.963 4  23108548.310    23108543.504
    299531.336 4    233400.561 4  23804996.445    23804991.046
 98 10  6 21  4 15.0000000  0  8G16G22G14G29G25G15G 1G30
        -0.29614        -0.62114  24928606.189    24928603.325
   -911567.268 4   -710309.828 4  23425543.364    23425535.769
   -577835.049 8   -450260.339 6  21479295.106    21479291.541
    423514.861 7    330011.668 6  21585382.537    21585379.529
    231474.959 9    180370.085 9  20615920.040    20615918.022
    544852.775 6    424559.237 5  21995528.069    21995522.258
    606062.423 5    472255.703 4  23115370.510    23115365.190
    323469.521 4    252053.667 4  23809552.356    23809546.069
 98 10  6 21  4 30.0000000  0  7G22G14G29G15G 1G30G25
   -964968.455 4   -751921.009 4  23415381.267    23415374.363
   -613299.334 8   -477894.826 6  21472546.196    21472542.982
    448830.152 7    349737.854 6  21590199.911    21590197.208
    577942.006 6    450343.013 5  22001824.724    22001818.829
    641929.477 5    500204.009 4  23122195.949    23122190.679
    347527.442 4    270800.069 4  23814130.128    23814124.402
    246003.904 9    191691.339 9  20618684.737    20618682.852
 98 10  6 21  4 45.0000000  0  7G22G14G29G25G15G 1G30
  -1018338.887 4   -793508.237 4  23405224.947    23405218.338
   -648681.019 8   -505464.950 6  21465813.435    21465809.942
    474200.153 7    369506.675 6  21595027.730    21595025.326
    260641.630 9    203097.356 9  20621470.093    20621468.326
    611147.499 6    476217.385 5  22008143.242    22008137.442
    677821.108 5    528171.465 4  23129025.526    23129020.353
    371715.003 4    289647.504 4  23818732.963    23818727.149
 98 10  6 21  5  0.0000000  0  8G22G14G25G29G15G 1G30G21
  -1071680.142 5   -835072.730 4  23395074.095    23395067.183
   -683977.595 8   -532968.753 6  21459096.582    21459093.060
    275385.130 9    214585.795 9  20624275.633    20624274.037
    499623.260 7    389316.879 6  21599865.598    21599863.193
    644467.978 6    502181.353 4  22014483.844    22014478.532
    713736.082 5    556157.114 4  23135860.022    23135854.804
    396030.967 4    308594.995 4  23823359.896    23823354.054
         0.19814         0.36714  24496899.204    24496895.505
 98 10  6 21  5 15.0000000  0  8G16G22G14G29G25G15G 1G30
        -0.68814        -0.05914  24888899.349    24888902.062
  -1124989.972 4   -876612.732 4  23384929.502    23384922.153
   -719184.819 8   -560402.931 6  21452396.885    21452393.238
    525099.201 7    409168.247 6  21604713.572    21604710.792
    290234.912 9    226157.051 9  20627101.479    20627099.919
    677903.527 6    528234.988 4  22020846.138    22020841.249
    749675.754 5    584162.007 4  23142699.302    23142694.043
    420477.440 4    327644.170 4  23828011.675    23828006.193
 98 10  6 21  5 30.0000000  0  7G22G14G29G15G 1G30G25
  -1178290.272 4   -918145.296 4  23374786.157    23374779.686
   -754319.334 8   -587780.451 6  21445711.173    21445707.496
    550607.365 7    429044.723 6  21609567.574    21609564.880
    711434.339 6    554362.856 4  22027226.860    22027222.518
    785620.998 5    612171.238 4  23149539.692    23149533.855
    445035.493 4    346780.290 4  23832684.889    23832680.264
    305171.905 9    237796.263 8  20629943.904    20629942.494
 98 10  6 21  5 45.0000000  0  7G22G14G29G15G 1G30G25
  -1231549.374 4   -959645.784 4  23364650.572    23364644.162
   -789345.354 8   -615073.430 6  21439045.743    21439042.167
    576177.254 7    448969.297 5  21614433.262    21614430.890
    745093.532 6    580590.756 4  22033631.948    22033627.459
    821609.054 5    640213.834 4  23156387.841    23156382.300
    469740.882 4    366031.223 4  23837386.332    23837381.384
    320226.630 9    249527.216 8  20632808.692    20632807.321
 98 10  6 21  6  0.0000000  0  7G22G14G25G29G15G 1G30
  -1284785.960 4  -1001128.722 4  23354520.797    23354513.567
   -824282.297 8   -642296.998 6  21432397.494    21432394.006
    335383.919 9    261338.087 8  20635693.118    20635691.556
    601790.424 7    468927.600 5  21619307.217    21619304.921
    778863.920 6    606905.304 4  22040058.226    22040053.725
    857624.870 5    668278.059 4  23163241.217    23163236.131
    494579.822 4    385386.212 4  23842113.123    23842108.257
 98 10  6 21  6 15.0000000  0  9G16G22G14G25G29G15G 1G30G21
        -0.42014        -0.61114  24849228.205    24849223.915
  -1337989.160 4  -1042585.636 4  23344396.653    23344390.051
   -859119.325 8   -669442.712 6  21425768.222    21425764.721
    350656.542 9    273238.826 9  20638599.504    20638597.816
    627457.724 7    488928.077 5  21624191.517    21624188.958
    812756.857 6    633315.341 4  22046507.851    22046503.623
    893682.180 5    696374.623 4  23170102.834    23170097.814
    519564.014 4    404854.388 4  23846867.577    23846862.124
         0.02614         0.26914  24550084.183    24550078.213
 98 10  6 21  6 30.0000000  0  7G22G14G29G15G 1G30G25
  -1391175.280 4  -1084029.244 4  23334275.694    23334268.320
   -893871.188 8   -696522.062 6  21419155.067    21419151.553
    653159.181 7    508955.170 5  21629082.451    21629079.808
    846755.647 6    659807.863 4  22052977.950    22052973.259
    929765.146 5    724491.180 4  23176969.343    23176964.291
    544678.235 4    424423.885 4  23851646.168    23851641.035
    366027.998 9    285216.578 9  20641524.720    20641522.925
 98 10  6 21  6 45.0000000  0  7G22G14G29G15G25G 1G30
  -1444335.145 4  -1125452.393 4  23324159.927    23324152.058
   -928529.045 8   -723528.162 6  21412559.785    21412556.302
    678901.878 7    529014.397 5  21633981.111    21633978.726
    880870.701 6    686390.977 5  22059470.083    22059465.339
    381508.482 9    297279.286 9  20644470.608    20644468.721
    965881.852 5    752634.024 4  23183842.342    23183837.146
    569935.124 4    444104.542 4  23856452.593    23856446.978
 98 10  6 21  7  0.0000000  0  8G16G22G14G25G29G15G 1G30
        -0.27714         0.00014  24819480.758    24819476.920
  -1497470.379 4  -1166856.354 4  23314048.329    23314039.764
   -963096.137 8   -750463.535 6  21405981.855    21405978.169
    397091.634 9    309421.995 9  20647435.957    20647434.083
    704679.826 7    549101.093 5  21638886.476    21638884.039
    915096.399 6    713060.308 5  22065982.988    22065978.102
   1002026.464 5    780798.612 4  23190720.506    23190715.056
    595328.487 4    463891.543 4  23861284.628    23861279.306
 98 10  6 21  7 15.0000000  0  8G22G14G29G15G25G 1G30G21
  -1550575.457 4  -1208236.802 4  23303942.512    23303933.248
   -997568.784 8   -777325.315 6  21399422.024    21399418.339
    730494.549 7    569216.447 5  21643798.917    21643796.605
    949433.814 6    739816.692 5  22072517.357    22072512.194
    412775.863 9    321643.466 9  20650420.611    20650418.659
   1038203.125 5    808988.175 4  23197604.725    23197599.241
    620859.463 4    483785.780 4  23866143.065    23866137.107
        -0.51314        -0.83914  24592767.017    24592761.984
 98 10  6 21  7 30.0000000  0  7G22G14G29G15G 1G25G30
  -1603649.897 4  -1249593.390 4  23293842.408    23293834.584
  -1031955.052 8   -804119.783 6  21392878.426    21392874.943
    756345.635 7    589360.135 5  21648718.462    21648715.949
    983880.034 6    766657.859 5  22079072.551    22079067.216
   1074408.062 5    837199.776 4  23204494.420    23204488.773
    428558.335 9    333941.489 9  20653423.911    20653421.856
    646524.777 4    503784.698 4  23871026.604    23871021.438
 98 10  6 21  7 45.0000000  0  8G16G22G14G29G15G25G 1G30
        -0.93214        -0.28114  24789767.076    24789742.649
  -1656686.203 5  -1290920.287 4  23283748.851    23283743.230
  -1066250.423 8   -830843.425 6  21386352.347    21386348.845
    782240.279 7    609537.761 5  21653645.851    21653643.192
   1018443.496 6    793590.379 5  22085649.856    22085644.157
    444447.392 9    346322.565 9  20656447.475    20656445.410
   1110648.495 5    865439.027 4  23211390.566    23211384.998
    672331.122 4    523893.510 4  23875938.596    23875932.378
 98 10  6 21  8  0.0000000  0  7G22G14G29G15G 1G25G30
  -1709690.675 5  -1332222.381 4  23273662.741    23273656.802
  -1100466.998 9   -857505.664 6  21379841.076    21379837.708
    808169.979 7    629742.707 5  21658580.052    21658577.470
   1053114.441 6    820606.655 5  22092247.509    22092242.079
   1146910.505 5    893695.102 4  23218291.059    23218285.699
    460432.940 9    358778.829 9  20659489.283    20659487.328
    698268.475 4    544104.402 4  23880873.237    23880868.747
 98 10  6 21  8 15.0000000  0  8G22G14G25G29G15G 1G30G21
  -1762667.365 4  -1373502.790 4  23263582.653    23263574.502
  -1134612.778 9   -884112.741 6  21373343.341    21373340.161
    476509.271 9    371305.833 9  20662548.644    20662546.661
    834130.974 7    649972.040 5  21663520.505    21663517.879
   1087886.555 6    847701.763 5  22098864.585    22098859.124
   1183186.162 5    921961.803 4  23225194.176    23225188.725
    724327.315 4    564409.964 4  23885832.360    23885827.066
        -0.24214         0.34414  24635548.470    24635544.592
 98 10  6 21  8 30.0000000  0  8G16G22G14G29G15G25G 1G30
        -0.37614        -0.14514  24760031.714    24760026.081
  -1815611.698 4  -1414757.986 4  23253507.344    23253499.784
  -1168681.170 9   -910659.516 6  21366860.300    21366857.080
    860126.198 7    670228.045 5  21668467.515    21668464.611
   1122762.400 6    874877.699 5  22105501.287    22105496.129
    492675.215 9    383902.666 9  20665624.823    20665622.991
   1219475.382 5    950239.075 4  23232099.746    23232094.501
    750507.144 4    584809.807 4  23890813.033    23890809.140
 98 10  6 21  8 45.0000000  0  7G22G14G29G15G 1G25G30
  -1868529.508 4  -1455992.514 4  23243437.521    23243430.248
  -1202676.483 9   -937149.345 6  21360391.157    21360387.994
    886151.509 6    690507.490 5  21673419.968    21673417.030
   1157736.125 6    902129.907 5  22112156.484    22112151.596
   1255771.749 5    978521.909 4  23239007.154    23239001.698
    508925.710 9    396565.385 9  20668717.244    20668715.288
    776802.138 4    605299.391 4  23895818.471    23895812.951
 98 10  6 21  9  0.0000000  0  8G22G14G25G29G15G 1G30G21
  -1921409.498 4  -1497197.573 4  23233374.457    23233367.364
  -1236586.243 9   -963572.512 6  21353938.270    21353935.222
    525270.293 9    409301.418 9  20671827.544    20671825.621
    912221.242 6    710821.549 5  21678380.612    21678377.797
   1192817.345 6    929465.881 5  22118832.259    22118827.571
   1292087.571 5   1006819.909 4  23245917.716    23245912.307
    803220.486 4    625885.090 4  23900845.629    23900840.436
        -0.73814        -0.55314  24667681.824    24667678.315
 98 10  6 21  9 15.0000000  0  7G22G14G29G15G 1G30G25
  -1974249.323 5  -1538371.339 4  23223318.935    23223312.796
  -1270408.621 9   -989927.589 6  21347502.075    21347498.927
    938338.452 6    731172.607 5  21683350.433    21683347.577
   1228007.234 6    956886.531 5  22125528.701    22125523.768
   1328426.048 5   1035135.565 4  23252832.607    23252827.095
    829761.901 4    646566.677 4  23905894.031    23905891.414
    541708.755 9    422110.604 8  20674955.700    20674953.812
 98 10  6 21  9 30.0000000  0  7G22G14G25G29G15G 1G30
  -2027054.848 5  -1579518.408 4  23213269.981    23213264.432
  -1304148.880 9  -1016218.677 6  21341081.636    21341078.359
    558240.929 9    434992.811 8  20678101.554    20678099.671
    964499.917 6    751558.152 5  21688329.046    21688326.140
   1263303.062 6    984389.725 5  22132245.313    22132240.300
   1364783.962 4   1063466.368 4  23259751.274    23259745.635
    856423.159 4    667341.665 4  23910967.538    23910964.565
 98 10  6 21  9 45.0000000  0  9G16G22G14G25G29G15G 1G30G21
        -0.64914        -0.30514  24710533.681    24710531.251
  -2079822.676 5  -1620636.114 4  23203228.691    23203222.779
  -1337799.992 9  -1042440.298 6  21334678.005    21334674.642
    574875.994 9    447955.196 8  20681267.268    20681265.377
    990710.177 6    771981.717 5  21693316.972    21693314.077
   1298711.111 6   1011980.368 5  22138983.341    22138978.061
   1401166.473 4   1091816.339 4  23266674.949    23266668.790
    883209.690 4    688214.260 4  23916066.269    23916062.454
        -0.16714         0.06514  24699868.478    24699863.703
 98 10  6 21 10  0.0000000  0  7G22G14G29G15G 1G30G25
  -2132568.150 4  -1661736.382 4  23193191.374    23193184.875
  -1371373.466 9  -1068601.424 6  21328289.153    21328285.689
   1016951.927 6    792429.815 5  21698310.500    21698307.675
   1334214.620 6   1039645.391 5  22145739.391    22145734.287
   1437557.613 4   1120173.031 4  23273600.382    23273594.158
    910104.814 4    709171.473 4  23921185.837    23921179.808
    591596.511 9    460984.166 8  20684449.119    20684447.312
 98 10  6 21 10 15.0000000  0  7G22G14G25G29G15G 1G30
  -2185287.487 4  -1702816.273 4  23183159.530    23183151.533
  -1404866.777 9  -1094700.081 6  21321915.867    21321912.295
    608404.340 9    474081.172 8  20687647.573    20687645.914
   1043226.790 6    812903.715 5  21703310.216    21703307.627
   1369813.281 6   1067384.561 4  22152513.433    22152508.229
   1473958.706 4   1148537.466 4  23280526.785    23280520.581
    937108.167 4    730212.999 4  23926323.670    23926318.150
 98 10  6 21 10 30.0000000  0  9G16G22G14G25G29G15G 1G30G21
        -0.88514        -0.04514  24680857.709    24680852.204
  -2237970.323 4  -1743867.697 4  23173134.208    23173126.675
  -1438263.155 9  -1120723.208 6  21315560.801    21315557.047
    625312.063 9    487256.016 8  20690864.879    20690863.210
   1069547.050 6    833412.996 5  21708318.685    21708316.365
   1405518.553 6   1095206.804 4  22159307.804    22159302.383
   1510383.933 4   1176920.716 4  23287458.424    23287452.415
    964230.075 4    751346.916 4  23931482.758    23931479.202
         0.02514         0.07014  24732105.484    24732102.022
 98 10  6 21 10 45.0000000  0  6G22G14G29G15G 1G25
  -2290621.223 5  -1784894.261 4  23163115.439    23163108.325
  -1471565.878 9  -1146673.355 6  21309223.501    21309219.719
   1095907.401 6    853953.516 5  21713334.989    21713332.181
   1441325.303 6   1123108.121 4  22166121.393    22166116.368
   1546830.163 4   1205320.340 4  23294393.758    23294387.920
    642313.992 9    500504.268 8  20694100.184    20694098.517
 98 10  6 21 11  0.0000000  0  6G22G14G29G15G 1G25
  -2343237.775 5  -1825894.076 4  23153102.462    23153095.452
  -1504773.783 9  -1172549.619 6  21302904.081    21302900.328
   1122310.283 6    874527.171 5  21718359.560    21718356.239
   1477235.635 6   1151090.150 4  22172954.915    22172950.072
   1583301.120 4   1233739.226 4  23301333.891    23301328.174
    659413.469 9    513828.531 8  20697354.039    20697352.317
 98 10  6 21 11 15.0000000  0  8G22G14G29G15G 1G30G25G21
  -2395803.412 5  -1866854.207 4  23143099.197    23143092.887
  -1537874.262 9  -1198342.175 6  21296605.248    21296601.344
   1148768.955 6    895144.298 5  21723394.401    21723391.145
   1513264.634 6   1179164.648 4  22179810.969    22179806.486
   1619808.373 4   1262186.394 4  23308281.169    23308275.147
        -0.51514        -0.62114  23947103.457    23947101.081
    676624.911 9    527240.041 8  20700629.270    20700627.451
        -0.09614        -0.05214  24764395.596    24764395.419
 98 10  6 21 11 30.0000000  0  6G22G14G29G15G 1G25
  -2448338.165 4  -1907790.281 4  23133101.556    23133095.023
  -1570887.212 9  -1224066.525 6  21290323.012    21290319.300
   1175262.265 6    915788.420 5  21728435.822    21728432.965
   1549392.930 6   1207316.520 4  22186686.171    22186681.719
   1656331.875 4   1290646.217 4  23315231.507    23315225.647
    693930.569 9    540724.966 8  20703922.496    20703920.660
 98 10  6 21 11 45.0000000  0  7G16G22G14G29G15G 1G25
        -0.03014        -0.32914  24631422.732    24631416.505
  -2500839.323 4  -1948700.172 4  23123110.593    23123103.846
  -1603812.069 9  -1249722.235 6  21284057.405    21284053.890
   1201792.831 6    936461.571 5  21733484.481    21733481.712
   1585620.206 6   1235545.521 4  22193580.207    22193575.901
   1692870.384 4   1319117.744 4  23322184.577    23322178.692
    711331.246 9    554283.932 8  20707233.856    20707231.889
 98 10  6 21 12  0.0000000  0  6G22G14G29G15G 1G25
  -2553301.187 5  -1989579.455 4  23113128.071    23113121.106
  -1636646.699 9  -1275307.639 6  21277809.139    21277805.592
   1228364.754 6    957166.951 5  21738541.039    21738538.249
   1621947.637 6   1263852.560 4  22200493.530    22200488.997
   1729426.322 4   1347602.843 4  23329141.159    23329134.535
    728826.366 9    567916.489 9  20710562.993    20710561.098
 98 10  6 21 16 30.0000000  0  3G22G15G25
        -0.32915        -0.48714  22934223.848    22934217.516
        -0.39815        -0.83914  22327538.802    22327533.967
        -0.79019        -0.77018  20772934.071    20772932.263
 98 10  6 21 17  0.0000000  0  4G22G15G 1G25
   -103311.718 5    -80502.678 4  22914563.957    22914557.819
     76453.012 5     59573.141 4  22342087.743    22342082.808
        -0.07614         0.46014  23468508.694    23468503.089
     38604.132 9     30080.969 8  20780280.523    20780278.627
 98 10  6 21 17 30.0000000  0  4G22G15G 1G25
   -206083.992 5   -160584.787 4  22895006.835    22895001.497
    153642.170 5    119720.431 4  22356776.328    22356771.296
     74405.548 4     57978.772 4  23482667.347    23482661.914
     77928.732 9     60723.493 8  20787763.835    20787761.795
 98 10  6 21 18  0.0000000  0  5G14G22G15G 1G25
        -0.32819        -0.67416  21132680.674    21132677.473
   -307947.646 5   -239958.913 4  22875622.405    22875616.973
    231916.834 5    180713.565 4  22371671.606    22371666.570
    149624.862 4    116591.125 4  23496981.410    23496975.937
    118326.994 9     92202.631 8  20795451.363    20795449.255
 98 10  6 21 18 30.0000000  0  5G14G22G15G 1G25
    -59801.434 9    -46598.893 6  21121300.886    21121297.458
   -409606.930 5   -319173.755 4  22856277.590    22856271.466
    310564.394 5    241997.261 4  22386637.614    22386632.621
    224931.160 4    175271.233 4  23511312.449    23511306.356
    159093.316 9    123968.571 8  20803208.900    20803206.937
 98 10  6 21 19  0.0000000  0  6G14G22G15G 1G16G25
   -119437.358 9    -93068.402 6  21109952.461    21109948.892
   -511304.167 5   -398418.169 4  22836925.480    22836918.944
    389360.979 5    303397.083 4  22401632.499    22401627.492
    300087.808 4    233834.743 4  23525614.511    23525608.517
         0.06114        -0.28414  24346124.579    24346116.783
    200025.086 9    155863.429 8  20810997.912    20810995.965
 98 10  6 21 19 30.0000000  0  6G14G22G15G 1G16G25
   -178885.675 9   -139391.725 6  21098639.683    21098636.241
   -613013.627 5   -477672.123 4  22817569.795    22817563.771
    468338.819 5    364938.136 4  22416661.479    22416656.363
    375142.322 4    292318.683 4  23539896.913    23539890.789
   -102190.370 4    -79628.960 4  24326676.804    24326670.955
    241169.043 9    187923.630 8  20818827.400    20818825.714
 98 10  6 21 20  0.0000000  0  5G14G22G15G 1G25
   -238067.435 9   -185507.349 6  21087377.728    21087374.529
   -714645.388 5   -556865.515 4  22798229.956    22798223.703
    547568.059 5    426675.095 4  22431738.253    22431733.608
    450164.634 4    350777.517 4  23554173.563    23554167.030
    282605.539 9    220211.785 8  20826712.541    20826710.757
 98 10  6 21 20 30.0000000  0  6G14G22G15G 1G16G25
   -296948.602 9   -231388.750 6  21076172.880    21076169.789
   -816154.634 5   -635963.444 4  22778913.077    22778907.333
    627080.330 5    488632.592 4  22446869.143    22446863.991
    525200.131 4    409246.633 4  23568452.180    23568446.209
        -0.88714        -0.72214  24287789.085    24287782.002
    324355.284 9    252744.029 8  20834657.233    20834655.437
 98 10  6 21 21  0.0000000  0  6G14G22G15G 1G16G25
   -355495.749 9   -277009.873 6  21065031.841    21065028.624
   -917507.559 5   -714939.563 4  22759626.318    22759619.969
    706889.719 5    550821.611 4  22462056.689    22462051.185
    600277.789 4    467748.599 4  23582738.612    23582732.882
   -102152.607 4    -79599.248 4  24268350.919    24268342.314
    366412.451 9    285515.821 8  20842660.545    20842658.604
 98 10  6 21 21 30.0000000  0  6G14G22G15G 1G16G25
   -413675.396 9   -322344.633 6  21053960.647    21053957.353
  -1018664.055 5   -793762.621 4  22740376.648    22740370.812
    787012.585 5    613254.906 4  22477303.738    22477297.939
    675424.029 4    526304.038 4  23597038.496    23597033.168
   -204279.228 4   -159178.200 4  24248917.866    24248908.617
    408770.723 9    318522.242 8  20850721.171    20850719.012
 98 10  6 21 22  0.0000000  0  6G14G22G15G 1G16G25
   -471458.377 9   -367370.303 6  21042964.851    21042961.614
  -1119592.341 5   -872407.872 4  22721169.834    22721164.893
    867461.969 5    675942.624 4  22492612.915    22492606.814
    750645.090 4    584917.767 4  23611353.105    23611347.546
   -306381.239 4   -238738.017 4  24229488.517    24229479.418
    451421.749 9    351756.784 8  20858837.275    20858835.161
 98 10  6 21 22 30.0000000  0  6G14G22G15G 1G16G25
   -528849.614 9   -412090.717 7  21032043.676    21032040.388
  -1220314.925 5   -950892.831 4  22702003.492    22701997.557
    948231.986 5    738880.190 4  22507982.748    22507976.648
    825937.438 4    643587.038 4  23625680.647    23625675.178
   -408441.793 4   -318265.537 4  24210066.567    24210057.704
    494352.515 9    385209.307 8  20867006.729    20867004.637
 98 10  6 21 23  0.0000000  0  6G14G22G15G 1G16G25
   -585842.054 9   -456500.382 7  21021198.219    21021194.875
  -1320837.214 5  -1029221.722 4  22682874.876    22682869.376
   1029327.105 5    802071.086 4  22523414.548    22523408.939
    901291.769 4    702304.612 4  23640019.884    23640014.007
   -510422.036 4   -397730.480 4  24190660.034    24190651.745
    537581.901 9    418894.521 8  20875233.105    20875231.077
 98 10  6 21 23 30.0000000  0  6G14G22G15G 1G16G25
   -642433.007 9   -500597.201 7  21010429.289    21010425.922
  -1421160.201 5  -1107395.321 4  22663784.138    22663777.349
   1110753.059 5    865519.772 4  22538909.663    22538904.256
    976708.293 4    761070.644 4  23654371.660    23654365.230
   -612302.288 4   -477117.545 4  24171272.930    24171264.572
    581142.634 9    452837.930 8  20883522.505    20883520.584
 98 10  6 21 24  0.0000000  0  6G14G22G15G 1G16G25
   -698623.863 9   -544382.255 7  20999736.682    20999733.225
  -1521285.097 5  -1185414.567 4  22644730.591    22644724.362
   1192507.302 5    929224.274 4  22554467.205    22554461.960
   1052191.511 4    819888.652 4  23668735.898    23668729.744
   -714064.052 4   -556412.245 4  24151908.283    24151899.169
    625045.469 9    487047.913 8  20891876.750    20891875.057
 98 10  6 21 24 30.0000000  0  6G22G15G 1G16G25G14
  -1621216.263 5  -1263282.890 4  22625714.359    22625708.260
   1274592.809 5    993186.900 4  22570087.694    22570082.094
   1127748.023 4    878763.762 4  23683114.335    23683107.340
   -815684.933 4   -635597.173 4  24132570.073    24132562.256
    669308.179 9    521538.324 8  20900299.754    20900297.984
   -754410.847 9   -587852.607 7  20989120.783    20989117.298
 98 10  6 21 25  0.0000000  0  6G22G15G 1G16G25G14
  -1720933.615 5  -1340984.592 4  22606738.609    22606732.435
   1357005.725 5   1057404.649 4  22585770.320    22585764.648
   1203382.818 4    937699.853 4  23697506.937    23697500.302
   -917180.426 4   -714684.453 4  24113254.754    24113248.093
    713930.127 9    556308.657 8  20908791.123    20908789.223
   -809789.763 9   -631004.979 7  20978582.574    20978579.206
 98 10  6 21 25 30.0000000  0  6G22G15G 1G16G25G14
  -1820421.306 5  -1418507.326 4  22587806.711    22587800.325
   1439738.156 5   1121871.372 4  22601513.748    22601507.952
   1279109.412 4    996707.485 4  23711916.964    23711910.538
  -1018575.948 4   -793693.798 4  24093960.626    24093952.814
    758895.823 9    591346.842 8  20917347.882    20917345.862
   -864759.325 9   -673838.377 7  20968122.052    20968118.783
 98 10  6 21 26  0.0000000  0  6G22G15G 1G16G25G14
  -1919672.347 5  -1495845.693 4  22568919.084    22568914.062
   1522792.874 5   1186589.232 4  22617318.775    22617312.462
   1354935.321 4   1055792.485 4  23726346.158    23726339.851
  -1119870.241 4   -872624.242 4  24074684.327    24074676.928
    804188.235 9    626639.613 7  20925966.648    20925964.738
   -919305.032 9   -716341.493 7  20957742.297    20957738.931
 98 10  6 21 26 30.0000000  0  6G22G15G 1G16G25G14
  -2018678.858 5  -1572993.528 4  22550078.530    22550074.117
   1606166.077 5   1251555.247 4  22633184.584    22633178.231
   1430851.501 4   1114947.830 4  23740792.934    23740786.048
  -1221069.040 4   -951480.329 4  24055424.649    24055420.109
    849810.201 9    662189.177 7  20934648.171    20934646.342
   -973414.553 9   -758504.724 7  20947445.579    20947442.287
 98 10  6 21 27  0.0000000  0  7G22G15G 1G16G29G25G14
  -2117414.099 5  -1649929.965 4  22531290.748    22531284.917
   1689861.023 5   1316771.969 4  22649111.329    22649104.694
   1506863.263 4   1174177.653 4  23755257.632    23755250.315
  -1322184.437 4  -1030271.428 4  24036185.507    24036177.374
        -0.57216        -0.42015  22057919.139    22057916.163
    895764.410 9    697997.634 7  20943392.935    20943391.124
  -1027066.235 9   -800311.199 7  20937235.915    20937232.588
 98 10  6 21 27 30.0000000  0  8G22G15G 1G16G29G30G25G14
  -2215893.755 5  -1726667.250 4  22512549.899    22512544.163
   1773864.147 5   1382228.821 4  22665096.527    22665090.674
   1582947.402 4   1233463.897 4  23769735.682    23769728.869
  -1423224.872 4  -1109004.022 4  24016957.862    24016950.050
     58664.838 6     45712.840 5  22069082.815    22069079.897
        -0.19714        -0.28414  24336585.961    24336583.759
    942041.775 9    734057.899 7  20952199.341    20952197.372
  -1080266.460 9   -841765.884 7  20927112.253    20927108.881
 98 10  6 21 28  0.0000000  0  7G22G15G 1G16G29G25G14
  -2314104.905 5  -1803195.314 4  22493860.577    22493855.421
   1858193.207 5   1447939.658 4  22681143.860    22681137.877
   1659107.807 4   1292809.574 4  23784228.493    23784222.210
  -1524160.495 4  -1187655.003 4  23997748.932    23997742.469
    117535.979 6     91586.414 5  22080285.696    22080282.437
    988664.317 9    770387.134 7  20961071.506    20961069.509
  -1132989.970 9   -882849.100 7  20917079.341    20917075.961
 98 10  6 21 28 30.0000000  0  8G22G15G 1G16G29G30G25G14
  -2412049.454 5  -1879515.637 4  22475222.060    22475217.169
   1942828.805 5   1513889.357 4  22697249.695    22697243.515
   1735332.476 4   1352205.336 4  23798733.983    23798728.233
  -1624996.405 4  -1266228.309 4  23978560.567    23978553.777
    176585.228 6    137598.771 5  22091522.417    22091519.347
        -0.30114         0.35514  24363547.966    24363546.752
   1035625.650 9    806980.365 7  20970008.021    20970005.952
  -1185255.920 9   -923575.779 7  20907133.291    20907130.259
 98 10  6 21 29  0.0000000  0  7G22G15G 1G16G29G25G14
  -2509717.298 6  -1955620.340 4  22456637.002    22456631.789
   2027774.917 5   1580081.009 4  22713414.964    22713408.432
   1811637.034 4   1411663.326 4  23813254.312    23813247.254
  -1725723.702 4  -1344716.907 4  23959393.551    23959386.477
    235817.566 6    183753.796 5  22102794.121    22102790.877
   1082916.212 9    843830.136 7  20979006.992    20979004.762
  -1237074.082 9   -963953.533 7  20897272.695    20897269.561
 98 10  6 21 29 30.0000000  0  8G25G22G15G 1G16G29G30G14
   1130572.006 9    880964.505 7  20988075.670    20988073.237
  -2607081.199 5  -2031488.182 4  22438109.220    22438103.732
   2113063.151 5   1646539.242 4  22729644.818    22729638.122
   1888060.674 4   1471214.103 4  23827797.522    23827789.795
  -1826274.577 4  -1423068.064 4  23940257.965    23940251.921
    295243.108 6    230059.361 5  22114102.349    22114099.285
        -0.83014        -0.63614  24390840.974    24390839.666
  -1288422.033 9  -1003964.888 7  20887501.627    20887498.322
 98 10  6 21 30  0.0000000  0  7G25G22G15G 1G16G29G14
   1178580.045 9    918373.348 7  20997211.417    20997209.085
  -2704138.009 6  -2107116.738 4  22419639.258    22419634.204
   2198675.591 5   1713250.097 4  22745936.414    22745929.641
   1964611.419 4   1530863.923 4  23842364.362    23842357.949
  -1926635.790 4  -1501271.457 4  23921157.489    23921153.112
    354839.129 5    276497.763 5  22125443.186    22125439.957
  -1339316.090 9  -1043622.562 7  20877816.759    20877813.494
 98 10  6 21 30 30.0000000  0  7G25G22G15G 1G29G30G14
   1226923.243 9    956043.356 7  21006410.699    21006408.665
  -2800890.618 6  -2182508.245 4  22401228.115    22401223.018
   2284595.430 5   1780200.486 4  22762286.675    22762280.311
   2041290.544 4   1590613.786 4  23856955.939    23856949.622
    414602.996 5    323066.951 5  22136815.963    22136812.693
        -0.45614        -0.74714  24418476.234    24418474.416
  -1389776.928 9  -1082942.664 7  20868214.124    20868210.985
 98 10  6 21 31  0.0000000  0  6G25G22G15G 1G29G14
   1275573.624 9    993952.725 7  21015668.547    21015666.623
  -2897363.663 6  -2257681.892 4  22382869.787    22382864.249
   2370794.908 5   1847368.775 4  22778689.979    22778683.426
   2118063.946 4   1650437.106 4  23871565.657    23871558.954
    474508.850 5    369746.776 5  22148215.677    22148212.240
  -1439825.637 9  -1121941.630 7  20858690.009    20858687.047
 98 10  6 21 31 30.0000000  0  7G25G22G15G 1G29G30G14
   1324529.688 9   1032100.289 7  21024984.407    21024982.610
  -2993577.938 6  -2332653.894 4  22364560.409    22364555.470
   2457256.817 5   1914741.552 4  22795142.906    22795136.582
   2194913.912 4   1710320.095 4  23886190.028    23886183.932
    534539.808 5    416524.094 5  22159639.284    22159635.902
         0.23914         0.11514  24446429.447    24446427.432
  -1489456.050 9  -1160614.654 7  20849245.623    20849242.652
 98 10  6 21 32  0.0000000  0  7G25G22G15G 1G16G29G14
   1373798.014 9   1070491.175 7  21034359.858    21034357.988
  -3089519.241 6  -2407413.202 4  22346303.745    22346297.955
   2543994.946 5   1982329.570 4  22811648.762    22811642.039
   2271850.466 4   1770270.551 4  23900830.343    23900824.074
        -0.47314         0.31114  23845068.996    23845062.424
    594731.266 5    463426.471 5  22171093.437    22171090.065
  -1538637.334 9  -1198937.704 7  20839886.833    20839883.780
 98 10  6 21 32 30.0000000  0  8G25G22G15G 1G16G29G14G30
   1423389.163 9   1109133.612 7  21043796.903    21043794.992
  -3185182.315 6  -2481955.693 4  22328099.167    22328094.023
   2631028.124 5   2050147.484 4  22828211.109    22828204.138
   2348875.831 4   1830290.206 4  23915488.257    23915481.151
    -99621.890 4    -77626.569 4  23826112.256    23826104.923
    655110.475 5    510475.153 5  22182583.443    22182580.005
  -1587333.804 9  -1236882.980 7  20830620.095    20830616.943
        -0.75114        -0.18814  24474696.457    24474693.876
 98 10  6 21 33  0.0000000  0  7G25G22G15G 1G16G29G14
   1473317.855 9   1148039.065 7  21053297.901    21053296.014
  -3280561.827 6  -2556277.250 4  22309948.511    22309943.199
   2718366.865 5   2118203.499 4  22844831.196    22844824.136
   2425993.642 4   1890381.891 4  23930163.690    23930156.841
   -199090.117 4   -155134.082 4  23807182.773    23807176.447
    715678.152 5    557670.684 5  22194109.155    22194105.527
  -1635519.169 9  -1274429.992 7  20821450.700    20821447.533
 98 10  6 21 33 30.0000000  0  8G25G22G15G 1G16G29G14G30
   1523565.363 9   1187192.945 7  21062859.691    21062857.936
  -3375680.450 6  -2630395.493 4  22291848.178    22291843.404
   2805986.279 5   2186478.215 4  22861504.913    22861497.353
   2503190.649 4   1950535.293 4  23944852.184    23944847.373
   -298403.819 4   -232521.211 4  23788283.237    23788278.123
    776422.376 5    605003.785 5  22205668.453    22205664.979
  -1683218.429 9  -1311598.222 7  20812373.830    20812370.735
        -0.09814        -0.12814  24503297.606    24503291.010
 98 10  6 21 34  0.0000000  0  8G25G22G15G 1G16G29G14G30
   1574123.123 9   1226588.578 7  21072480.617    21072478.815
  -3470524.058 6  -2704299.444 4  22273800.038    22273794.633
   2893881.291 5   2254967.682 4  22878230.608    22878223.890
   2580454.813 4   2010741.021 4  23959554.814    23959550.076
   -397569.149 4   -309792.719 4  23769413.917    23769407.570
    837349.496 5    652479.404 5  22217262.411    22217258.781
  -1730439.246 9  -1348393.639 7  20803388.195    20803385.020
     75763.037 4     59035.970 4  24517715.082    24517708.078
 98 10  6 21 34 30.0000000  0  8G25G22G15G 1G16G29G14G30
   1625012.309 9   1266242.464 7  21082164.558    21082162.814
  -3565061.568 6  -2777964.881 4  22255809.607    22255804.742
   2982060.067 5   2323678.257 4  22895009.878    22895004.059
   2657802.309 4   2071011.696 4  23974275.074    23974268.924
   -496570.462 4   -386936.422 4  23750574.401    23750567.944
    898454.117 5    700093.334 5  22228890.175    22228886.504
  -1777180.427 9  -1384815.314 7  20794493.512    20794490.468
    151961.184 4    118411.042 4  24532215.324    24532207.704
 98 10  6 21 35  0.0000000  0  8G25G22G15G 1G16G29G14G30
   1676229.123 9   1306151.642 7  21091910.908    21091909.098
  -3659290.383 6  -2851389.791 4  22237878.312    22237873.132
   3070504.439 5   2392595.782 4  22911840.770    22911834.873
   2735224.499 4   2131340.574 4  23989007.656    23989002.216
   -595410.639 4   -463954.551 4  23731766.191    23731758.250
    959717.496 5    747830.975 5  22240548.053    22240544.355
  -1823475.585 9  -1420889.441 7  20785683.702    20785680.759
    228568.039 4    178104.575 4  24546793.280    24546785.571
 98 10  6 21 35 30.0000000  0  8G25G22G15G 1G16G29G14G30
   1727784.201 9   1346324.400 7  21101721.716    21101719.510
  -3753178.264 6  -2924549.043 4  22220011.987    22220007.249
   3159220.806 5   2461725.250 4  22928723.123    22928717.307
   2812733.686 4   2191737.257 4  24003757.354    24003751.264
   -694091.386 4   -540848.448 4  23712987.198    23712980.517
   1021163.015 5    795710.544 5  22252240.764    22252237.297
  -1869313.803 9  -1456607.513 7  20776960.960    20776957.776
    305591.878 4    238123.003 4  24561450.527    24561441.769
 98 10  6 21 36  0.0000000  0  8G25G22G15G 1G16G29G14G30
   1779650.046 9   1386739.310 7  21111591.495    21111589.244
  -3846725.102 6  -2997442.542 4  22202210.710    22202205.496
   3248195.647 5   2531056.125 4  22945655.018    22945649.159
   2890325.184 4   2252198.071 4  24018523.704    24018516.710
   -792630.559 4   -617632.074 4  23694235.732    23694228.404
   1082774.109 5    843719.132 5  22263965.096    22263961.366
  -1914699.848 9  -1491973.240 7  20768324.139    20768320.964
    383020.728 4    298457.034 4  24576184.309    24576176.194
 98 10  6 21 36 30.0000000  0  8G25G22G15G 1G16G14G29G30
   1831824.142 9   1427394.414 7  21121519.776    21121517.638
  -3939946.062 6  -3070082.119 4  22184471.020    22184466.289
   3337420.885 5   2600582.107 4  22962634.257    22962628.069
   2968012.674 4   2312733.679 4  24033304.812    24033300.588
   -891015.951 4   -694295.849 4  23675513.573    23675507.235
  -1959640.597 9  -1526991.986 7  20759771.974    20759768.994
   1144549.029 5    891855.372 5  22275720.651    22275716.852
    460836.506 4    359092.604 4  24590992.262    24590984.764
 98 10  6 21 37  0.0000000  0  8G25G22G15G 1G16G29G14G30
   1884297.384 9   1468282.622 7  21131505.182    21131503.126
  -4032853.977 6  -3142477.777 4  22166790.892    22166786.092
   3426895.837 5   2670302.675 4  22979660.826    22979653.978
   3045792.704 4   2373341.416 4  24048107.142    24048101.845
   -989233.833 4   -770829.090 4  23656823.046    23656816.309
   1206508.813 5    940135.667 4  22287511.198    22287507.952
  -2004123.137 9  -1561653.687 7  20751307.258    20751304.153
    539028.647 4    420021.441 4  24605871.545    24605865.103
 98 10  6 21 37 30.0000000  0  8G25G22G15G 1G16G29G14G30
   1937053.042 9   1509390.894 7  21141544.300    21141542.174
  -4125459.038 6  -3214637.451 4  22149169.027    22149163.996
   3516616.632 5   2740214.815 4  22996734.315    22996727.121
   3123662.910 4   2434019.399 4  24062922.684    24062919.425
  -1087274.883 4   -847224.567 4  23638165.702    23638159.616
   1268657.074 5    988562.828 4  22299337.407    22299334.255
  -2048124.525 9  -1595940.461 7  20742934.325    20742931.062
    617596.679 4    481243.149 4  24620822.750    24620816.461
 98 10  6 21 38  0.0000000  0  7G25G22G15G16G29G30G14
   1990079.933 9   1550710.520 7  21151635.034    21151633.057
  -4217786.530 6  -3286580.834 4  22131599.590    22131594.505
   3606574.506 4   2810311.681 4  23013853.074    23013845.551
  -1185133.518 4   -923477.908 4  23619544.015    23619537.136
   1330980.456 5   1037126.446 4  22311197.445    22311193.760
    696532.239 4    542751.266 4  24635843.747    24635837.917
  -2091654.670 9  -1629860.031 7  20734650.904    20734647.678
 98 10  6 21 38 30.0000000  0  7G25G22G15G16G29G30G14
   2043397.037 9   1592256.286 7  21161780.894    21161778.863
  -4309829.267 6  -3358302.337 4  22114084.447    22114079.178
   3696769.418 4   2880593.256 4  23031017.106    23031008.617
  -1282809.199 4   -999588.680 4  23600956.759    23600949.879
   1393477.060 5   1085825.041 4  22323089.823    22323086.927
    775844.561 4    604552.960 4  24650935.825    24650930.931
  -2134704.161 9  -1663405.064 7  20726458.930    20726455.739
 98 10  6 21 39  0.0000000  0  8G25G22G15G 1G16G29G14G30
   2097015.653 9   1634036.999 7  21171984.334    21171982.183
  -4401544.076 6  -3429768.323 4  22096631.448    22096626.305
   3787222.072 4   2951075.672 4  23048229.858    23048221.103
        -0.49014         0.45514  24107471.971    24107466.087
  -1380295.498 4  -1075551.887 4  23582405.607    23582399.589
   1456161.905 5   1134670.320 4  22335018.483    22335015.850
  -2177238.023 9  -1696548.311 7  20718364.996    20718361.964
    855553.687 4    666663.889 4  24666102.810    24666099.042
 98 10  6 21 39 30.0000000  0  8G25G22G15G 1G16G29G14G30
   2150922.966 9   1676042.668 7  21182242.572    21182240.298
  -4492924.523 6  -3500973.770 4  22079242.147    22079237.142
   3877912.342 4   3021743.240 4  23065488.118    23065479.323
     78201.195 4     60936.712 4  24122351.718    24122347.946
  -1477618.540 4  -1151387.891 4  23563885.803    23563879.404
   1519013.038 5   1183645.171 4  22346978.823    22346975.769
  -2219278.275 9  -1729306.924 7  20710365.028    20710362.014
    935643.816 4    729071.693 4  24681342.037    24681339.625
 98 10  6 21 40  2.0000000  0  3G29G16G14
        -0.43715        -0.84614  22359766.577    22359763.323
        -0.99214        -0.66714  23544160.236    23544154.505
        -0.11919        -0.62117  20701930.406    20701928.016
 98 10  6 21 40  3.0000000  0  3G29G16G14
      2102.283 5      1637.635 4  22360166.786    22360163.423
     -3237.432 4     -2522.559 4  23543545.200    23543538.792
     -1376.109 9     -1072.819 7  20701668.778    20701666.194
 98 10  6 21 40  4.0000000  0  3G29G16G14
      4205.254 5      3276.309 4  22360566.952    22360563.424
     -6473.624 4     -5044.269 4  23542929.097    23542923.395
     -2751.445 9     -2144.509 7  20701407.098    20701404.483
 98 10  6 21 40  5.0000000  0  3G29G16G14
      6308.413 5      4915.129 4  22360967.298    22360964.079
     -9709.652 4     -7565.843 4  23542313.618    23542306.955
     -4126.237 9     -3215.774 7  20701145.673    20701142.879
 98 10  6 21 40  6.0000000  0  3G29G16G14
      8411.798 5      6554.131 4  22361367.375    22361364.492
    -12945.454 4    -10087.244 4  23541697.926    23541691.424
     -5500.408 9     -4286.557 7  20700884.185    20700881.329
 98 10  6 21 40  7.0000000  0  3G29G16G14
     10515.263 5      8193.195 4  22361767.802    22361764.581
    -16181.196 4    -12608.593 4  23541082.493    23541075.648
     -6874.115 9     -5356.975 7  20700622.820    20700619.916
 98 10  6 21 40  8.0000000  0  4G29G16G 1G14
     12618.830 5      9832.338 4  22362168.030    22362164.605
    -19416.825 4    -15129.862 4  23540466.315    23540460.745
         0.09014         0.49414  24141045.795    24141221.125
     -8247.335 9     -6427.016 7  20700361.543    20700358.672
 98 10  6 21 40  9.0000000  0  4G29G16G 1G14
     14722.496 5     11471.553 4  22362568.517    22362565.550
    -22652.372 4    -17651.065 4  23539850.761    23539844.486
      2611.870 4      2035.706 4  24141721.107    24141718.523
     -9620.071 9     -7496.680 7  20700100.400    20700097.355
 98 10  6 21 40 10.0000000  0  4G29G16G 1G14
     16826.459 5     13111.009 4  22362968.772    22362965.573
    -25887.673 4    -20172.068 4  23539235.049    23539229.070
      5223.813 4      4071.010 4  24142219.328    24142215.301
    -10992.156 9     -8565.836 7  20699839.232    20699836.407
 98 10  6 21 40 11.0000000  0  4G29G16G 1G14
     18930.520 5     14750.530 4  22363369.362    22363366.210
    -29122.874 4    -22693.003 4  23538619.310    23538613.179
      7835.781 4      6106.315 4  24142716.584    24142711.117
    -12363.769 9     -9634.625 7  20699578.291    20699575.341
 98 10  6 21 40 12.0000000  0  4G29G16G 1G14
     21034.772 5     16390.203 4  22363769.633    22363766.555
    -32357.899 4    -25213.803 4  23538003.752    23537997.576
     10447.833 4      8141.677 4  24143213.030    24143209.398
    -13734.824 9    -10702.979 7  20699317.370    20699314.514
 98 10  6 21 40 13.0000000  0  4G29G16G 1G14
     23139.238 5     18030.049 4  22364170.330    22364167.237
    -35592.739 4    -27734.458 4  23537388.088    23537381.575
     13060.022 4     10177.146 4  24143710.504    24143707.052
    -15105.273 9    -11770.859 7  20699056.582    20699053.575
 98 10  6 21 40 14.0000000  0  6G22G29G16G15G 1G14
        -0.61916        -0.73514  22053858.590    22053853.866
     25243.948 5     19670.079 4  22364570.834    22364567.229
    -38827.350 4    -30254.923 4  23536772.363    23536766.188
        -0.22014         0.18314  23090875.689    23090866.235
     15672.364 4     12212.725 4  24144206.778    24144203.904
    -16475.121 9    -12838.273 7  20698795.902    20698792.977
 98 10  6 21 40 15.0000000  0  6G22G29G16G15G 1G14
     -3022.952 6     -2355.794 5  22053283.443    22053278.830
     27348.902 5     21310.307 4  22364971.491    22364967.247
    -42061.730 4    -32775.225 4  23536157.210    23536150.069
      3037.397 4      2367.148 4  23091453.452    23091443.437
     18284.856 4     14248.430 4  24144704.172    24144700.444
    -17844.363 9    -13905.215 7  20698535.329    20698532.386
 98 10  6 21 40 16.0000000  0  6G22G29G16G15G 1G14
     -6044.742 6     -4710.436 5  22052708.452    22052703.834
     29454.172 5     22950.771 4  22365371.844    22365368.361
    -45295.834 4    -35295.301 4  23535541.510    23535535.419
      6075.361 4      4734.389 4  23092031.733    23092022.273
     20897.558 4     16284.311 4  24145201.045    24145198.557
    -19212.919 9    -14971.621 7  20698274.912    20698271.924
 98 10  6 21 40 17.0000000  0  6G22G29G16G15G 1G14
     -9066.111 6     -7064.743 4  22052133.476    22052128.833
     31559.629 5     24591.391 4  22365772.871    22365769.027
    -48529.734 4    -37815.221 4  23534926.057    23534920.773
      9113.580 4      7101.831 4  23092609.616    23092600.811
     23510.414 4     18320.284 4  24145699.361    24145694.275
    -20580.907 9    -16037.584 7  20698014.574    20698011.606
 98 10  6 21 40 18.0000000  0  6G22G29G16G15G 1G14
    -12087.134 6     -9418.782 5  22051558.603    22051553.815
     33665.215 5     26232.099 4  22366173.341    22366169.890
    -51763.540 4    -40335.062 4  23534310.956    23534304.641
     12151.995 4      9469.410 4  23093187.589    23093179.079
     26123.286 4     20356.288 4  24146196.710    24146193.306
    -21948.402 9    -17103.165 7  20697754.365    20697751.345
 98 10  6 21 40 19.0000000  0  6G22G29G16G15G 1G14
    -15107.750 6    -11772.506 5  22050983.878    22050979.599
     35770.994 5     27872.969 4  22366574.305    22366570.425
    -54997.208 4    -42854.801 4  23533695.147    23533689.483
     15190.622 4     11837.172 4  23093765.933    23093757.543
     28736.264 4     22392.374 4  24146693.255    24146689.027
    -23315.362 9    -18168.328 7  20697494.229    20697491.366
 98 10  6 21 40 20.0000000  0  8G25G22G29G16G15G 1G30G14
        -0.83819        -0.45317  21199459.411    21199457.284
    -18127.977 6    -14125.927 5  22050409.031    22050404.651
     37876.936 5     29513.956 4  22366974.807    22366971.135
    -58230.699 4    -45374.403 4  23533080.329    23533074.614
     18229.483 5     14205.115 4  23094344.523    23094335.511
     31349.352 4     24428.538 4  24147190.794    24147185.942
        -0.93214        -0.93914  24706894.788    24706892.662
    -24681.782 9    -19233.069 7  20697234.188    20697231.334
 98 10  6 21 40 21.0000000  0  8G25G22G29G16G15G 1G30G14
      1816.654 9      1415.773 7  21199805.418    21199803.230
    -21147.836 6    -16479.059 4  22049834.333    22049830.297
     39983.019 5     31155.058 4  22367375.561    22367371.836
    -61464.076 4    -47893.913 4  23532464.815    23532458.723
     21268.547 4     16573.199 4  23094922.949    23094914.074
     33962.494 4     26464.755 4  24147687.532    24147684.277
      2694.787 4      2099.599 4  24707406.379    24707405.333
    -26047.693 9    -20297.415 7  20696974.245    20696971.380
 98 10  6 21 40 22.0000000  0  8G25G22G29G16G15G 1G30G14
      3634.453 9      2832.239 7  21200151.358    21200149.117
    -24167.266 6    -18831.859 4  22049259.919    22049255.484
     42089.307 5     32796.322 4  22367776.651    22367772.515
    -64697.277 4    -50413.287 4  23531848.997    23531844.029
     24307.857 4     18941.498 4  23095500.977    23095491.869
     36575.784 4     28501.075 4  24148184.708    24148181.373
      5390.893 4      4200.451 4  24707920.349    24707918.108
    -27413.043 9    -21361.324 7  20696714.437    20696711.480
 98 10  6 21 40 23.0000000  0  8G25G22G29G16G15G 1G30G14
      5452.616 9      4248.987 7  21200497.341    21200495.131
    -27186.239 6    -21184.301 5  22048685.317    22048681.143
     44195.849 5     34437.777 4  22368177.445    22368173.747
    -67930.247 4    -52932.472 4  23531234.198    23531228.402
     27347.477 4     21310.027 4  23096079.330    23096070.717
     39189.235 4     30537.531 4  24148682.642    24148678.868
      8087.445 4      6301.659 4  24708433.883    24708431.101
    -28777.788 9    -22424.760 7  20696454.747    20696451.766
 98 10  6 21 40 24.0000000  0  8G25G22G29G16G15G 1G30G14
      7271.165 9      5666.037 7  21200843.488    21200841.253
    -30204.711 6    -23536.355 5  22048111.135    22048106.581
     46302.646 5     36079.435 4  22368578.341    22368574.546
    -71162.953 4    -55451.459 4  23530619.030    23530612.906
     30387.423 5     23678.804 4  23096658.294    23096649.062
     41802.870 4     32574.126 4  24149179.590    24149176.809
     10784.437 4      8403.208 4  24708946.721    24708944.205
    -30141.898 9    -23487.701 7  20696195.176    20696192.270
 98 10  6 21 40 25.0000000  0  8G25G22G29G16G15G 1G30G14
      9090.018 9      7083.325 7  21201189.599    21201187.372
    -33222.741 6    -25888.065 4  22047536.597    22047532.159
     48409.638 5     37721.246 5  22368979.177    22368975.356
    -74395.491 4    -57970.327 4  23530004.081    23529997.841
     33427.609 4     26047.775 4  23097236.195    23097227.749
     44416.673 4     34610.855 4  24149677.473    24149673.333
     13481.834 4     10505.074 4  24709460.681    24709457.812
    -31505.452 9    -24550.211 7  20695935.742    20695932.788
 98 10  6 21 40 26.0000000  0  8G25G22G29G16G15G 1G30G14
     10909.179 9      8500.850 7  21201535.789    21201533.495
    -36240.357 6    -28239.448 4  22046962.477    22046958.068
     50516.817 5     39363.205 4  22369380.644    22369376.293
    -77627.855 4    -60489.048 4  23529388.747    23529382.687
     36468.054 4     28416.949 4  23097815.129    23097806.200
     47030.578 4     36647.658 4  24150174.784    24150171.252
     16179.644 4     12607.261 4  24709974.033    24709971.579
    -32868.453 9    -25612.288 7  20695676.396    20695673.369
 98 10  6 21 40 27.0000000  0  8G25G22G29G16G15G 1G30G14
     12728.562 9      9918.550 7  21201882.050    21201879.743
    -39257.651 6    -30590.586 5  22046388.311    22046383.800
     52624.081 5     41005.223 5  22369781.255    22369777.625
    -80860.153 4    -63007.715 4  23528773.550    23528768.244
     39508.664 4     30786.253 4  23098393.513    23098384.746
     49644.525 4     38684.488 4  24150674.293    24150668.969
     18877.744 4     14709.685 4  24710487.864    24710484.298
    -34230.998 9    -26674.013 7  20695417.020    20695414.089
 98 10  6 21 40 28.0000000  0  8G25G22G29G16G15G 1G30G14
     14548.223 9     11336.467 7  21202228.334    21202225.945
    -42274.537 6    -32941.402 5  22045814.038    22045809.556
     54731.517 5     42647.382 4  22370182.640    22370178.290
    -84092.290 4    -65526.268 4  23528159.208    23528152.408
     42549.490 4     33155.719 4  23098972.265    23098963.528
     52258.578 4     40721.425 4  24151171.284    24151166.448
     21576.212 4     16812.384 4  24711001.597    24710998.093
    -35593.016 9    -27735.324 7  20695157.901    20695154.874
 98 10  6 21 40 29.0000000  0  8G25G22G29G16G15G 1G30G14
     16368.367 9     12754.760 7  21202574.722    21202572.421
    -45290.835 6    -35291.759 4  22045240.119    22045235.693
     56839.310 5     44289.816 4  22370583.799    22370579.501
    -87324.069 4    -68044.521 4  23527543.496    23527537.873
     45590.740 4     35525.518 4  23099551.109    23099541.120
     54872.955 4     42758.568 4  24151666.931    24151663.382
     24275.281 4     18915.536 4  24711514.545    24711512.484
    -36954.309 9    -28796.070 7  20694898.818    20694895.877
 98 10  6 21 40 30.0000000  0  8G25G22G29G16G15G 1G30G14
     18189.699 9     14173.979 7  21202921.344    21202919.026
    -48305.830 6    -37641.102 4  22044666.396    22044661.884
     58948.190 5     45933.093 4  22370985.119    22370980.665
    -90554.782 4    -70561.955 4  23526928.927    23526922.933
     48633.136 4     37896.211 4  23100129.968    23100120.939
     57488.323 4     44796.524 4  24152164.855    24152161.766
     26975.608 4     21019.692 4  24712027.784    24712025.785
    -38314.169 9    -29855.702 7  20694640.000    20694636.954
 98 10  6 21 40 31.0000000  0  8G25G22G29G16G15G 1G30G14
     20012.001 9     15593.953 7  21203268.108    21203265.706
    -51319.721 6    -39989.587 4  22044092.903    22044088.264
     61057.948 5     47577.054 4  22371386.613    22371382.355
    -93784.653 4    -73078.746 4  23526314.171    23526307.958
     51676.463 4     40267.630 4  23100708.822    23100700.021
     60104.523 4     46835.118 4  24152662.715    24152660.004
     29677.009 4     23124.689 4  24712542.815    24712539.714
    -39672.799 9    -30914.373 7  20694381.463    20694378.536
 98 10  6 21 40 32.0000000  0  8G25G22G29G16G15G 1G30G14
     21834.680 9     17014.222 7  21203614.906    21203612.622
    -54333.128 6    -42337.695 4  22043519.436    22043514.858
     63167.950 5     49221.210 5  22371788.133    22371783.534
    -97014.268 4    -75595.313 4  23525699.592    23525693.791
     54720.113 4     42639.296 4  23101287.790    23101278.474
     62720.908 4     48873.870 4  24153161.444    24153155.643
     32378.914 4     25230.054 4  24713056.584    24713054.475
    -41030.811 9    -31972.563 7  20694123.083    20694120.033
 98 10  6 21 40 33.0000000  0  8G25G22G29G16G15G 1G30G14
     23657.666 9     18434.729 7  21203961.778    21203959.458
    -57346.131 6    -44685.485 4  22042946.048    22042941.582
     65278.126 5     50865.502 4  22372189.600    22372185.174
   -100243.701 4    -78111.747 4  23525085.477    23525079.976
     57763.994 4     45011.150 4  23101867.318    23101858.626
     65337.438 4     50912.705 4  24153658.790    24153654.421
     35081.207 4     27335.725 4  24713570.444    24713568.019
    -42388.271 9    -33030.324 7  20693864.662    20693861.662
 98 10  6 21 40 34.0000000  0  8G25G22G29G16G15G 1G30G14
     25480.969 9     19855.483 7  21204308.732    21204306.425
    -60358.685 6    -47032.931 4  22042372.885    22042368.394
     67388.508 5     52509.961 5  22372590.949    22372586.904
   -103472.913 4    -80628.017 4  23524470.329    23524464.457
     60808.162 4     47383.228 4  23102446.673    23102437.837
     67954.103 4     52951.660 4  24154157.549    24154151.568
     37783.919 4     29441.752 4  24714084.359    24714081.948
    -43745.141 9    -34087.624 7  20693606.514    20693603.461
 98 10  6 21 40 35.0000000  0  8G25G22G29G16G15G 1G30G14
     27304.681 9     21276.556 7  21204655.784    21204653.515
    -63370.737 6    -49379.980 5  22041799.575    22041794.971
     69499.206 5     54154.654 5  22372992.673    22372988.407
   -106701.876 4    -83144.080 4  23523856.100    23523850.023
     63852.688 4     49755.573 4  23103025.997    23103017.946
     70571.014 4     54990.814 4  24154656.616    24154650.244
     40487.164 4     31548.163 4  24714599.310    24714597.541
    -45101.361 9    -35144.417 7  20693348.401    20693345.401
 98 10  6 21 40 36.0000000  0  8G25G22G29G16G15G 1G30G14
     29128.725 9     22697.890 7  21205002.820    21205000.520
    -66382.357 6    -51726.695 5  22041226.438    22041222.144
     71610.141 5     55799.536 4  22373394.769    22373390.268
   -109930.606 4    -85659.972 4  23523241.896    23523235.989
     66897.479 4     52128.140 4  23103605.593    23103596.795
     73188.063 4     57030.067 4  24155155.099    24155147.929
     43190.821 4     33654.916 4  24715113.141    24715111.498
    -46456.989 9    -36200.751 7  20693090.414    20693087.339
 98 10  6 21 40 37.0000000  0  8G25G22G29G16G15G 1G30G14
     30953.140 9     24119.511 7  21205350.042    21205347.607
    -69393.490 6    -54073.027 5  22040653.334    22040649.001
     73721.315 5     57444.604 4  22373796.210    22373791.638
   -113159.097 4    -88175.671 4  23522627.512    23522621.906
     69942.594 4     54500.948 4  23104184.656    23104176.748
     75805.321 4     59069.483 4  24155654.084    24155647.104
     45894.955 4     35762.010 4  24715628.509    24715625.386
    -47812.004 9    -37256.605 7  20692832.647    20692829.526
 98 10  6 21 40 38.0000000  0  8G25G22G29G16G15G 1G30G14
     32777.816 9     25541.335 7  21205697.157    21205694.858
    -72404.274 6    -56419.087 4  22040080.219    22040076.028
     75832.626 5     59089.778 5  22374198.081    22374193.936
   -116387.439 4    -90691.270 4  23522013.064    23522006.672
     72987.897 4     56873.901 4  23104764.314    23104756.790
     78422.638 4     61108.947 4  24156151.463    24156145.378
     48599.437 4     37869.393 4  24716143.248    24716140.291
    -49166.518 9    -38312.070 7  20692574.886    20692571.693
 98 10  6 21 40 39.0000000  0  8G25G22G29G16G15G 1G30G14
     34602.829 9     26963.421 7  21206044.420    21206042.053
    -75414.625 6    -58764.813 4  22039507.420    22039502.976
     77944.145 5     60735.116 4  22374599.913    22374595.686
   -119615.585 4    -93206.710 4  23521398.723    23521392.603
     76033.478 4     59247.083 4  23105343.524    23105335.729
     81040.120 4     63148.538 4  24156650.605    24156642.478
     51304.368 4     39977.131 4  24716657.892    24716654.654
    -50520.453 9    -39367.082 7  20692317.241    20692314.113
 98 10  6 21 40 40.0000000  0  8G25G22G29G16G15G 1G30G14
     36428.137 9     28385.739 7  21206391.724    21206389.466
    -78424.571 6    -61110.223 4  22038934.684    22038930.216
     80055.848 5     62380.595 4  22375001.654    22374997.338
   -122843.573 4    -95722.014 4  23520784.410    23520778.317
     79079.298 5     61620.445 4  23105923.181    23105915.817
     83657.722 4     65188.220 4  24157148.319    24157141.017
     54009.685 4     42085.174 4  24717173.148    24717169.655
    -51873.847 9    -40421.675 7  20692059.693    20692056.519
 98 10  6 21 40 41.0000000  0  8G25G22G29G16G15G 1G30G14
     38253.695 9     29808.250 7  21206739.117    21206736.838
    -81434.189 6    -63455.380 4  22038361.886    22038357.305
     82167.675 5     64026.172 5  22375403.565    22375399.316
   -126071.442 4    -98237.233 4  23520170.710    23520163.385
     82125.294 4     63993.939 4  23106503.016    23106495.416
     86275.364 4     67227.940 4  24157646.450    24157639.637
     56715.328 4     44193.475 4  24717689.373    24717684.606
    -53226.756 9    -41475.888 7  20691802.203    20691799.050
 98 10  6 21 40 42.0000000  0  8G25G22G29G16G15G 1G30G14
     40079.402 9     31230.878 7  21207086.557    21207084.352
    -84443.565 6    -65800.347 4  22037789.042    22037784.717
     84279.532 5     65671.771 4  22375805.474    22375800.907
   -129299.291 4   -100752.433 4  23519556.226    23519550.321
     85171.374 4     66367.508 4  23107082.637    23107074.437
     88892.953 4     69267.633 4  24158145.400    24158136.962
     59421.227 4     46301.965 4  24718205.062    24718198.864
    -54579.276 9    -42529.798 7  20691544.787    20691541.730
 98 10  6 21 40 43.0000000  0  8G25G22G29G16G15G 1G30G14
     41905.499 9     32653.810 7  21207433.983    21207431.913
    -87452.441 6    -68144.919 4  22037216.646    22037211.934
     86391.659 5     67317.587 4  22376207.456    22376203.257
   -132526.874 4   -103267.423 4  23518941.757    23518935.701
     88217.790 4     68741.328 4  23107662.547    23107654.479
     91510.781 4     71307.482 4  24158643.037    24158636.206
     62127.611 4     48410.815 4  24718716.974    24718714.635
    -55931.163 9    -43583.217 7  20691287.550    20691284.395
 98 10  6 21 40 44.0000000  0  8G25G22G29G16G15G 1G30G14
     43732.010 9     34077.063 7  21207781.577    21207779.531
    -90460.806 6    -70489.098 4  22036643.901    22036639.174
     88504.076 5     68963.624 4  22376609.436    22376604.995
   -135754.164 4   -105782.197 4  23518327.622    23518321.865
     91264.555 4     71115.427 4  23108241.936    23108234.105
     94128.839 4     73347.509 4  24159140.535    24159134.349
     64834.492 4     50520.082 4  24719231.434    24719229.845
    -57282.405 9    -44636.131 7  20691030.439    20691027.278
 98 10  6 21 40 45.0000000  0  8G25G22G29G16G15G 1G30G14
     45558.739 9     35500.486 7  21208129.234    21208127.103
    -93468.857 6    -72833.032 4  22036071.736    22036066.620
     90616.584 5     70609.735 4  22377011.184    22377006.951
   -138981.358 4   -108296.896 4  23517713.513    23517707.704
     94311.467 4     73489.640 4  23108822.165    23108813.605
     96746.906 4     75387.564 4  24159639.139    24159631.141
     67541.697 4     52629.585 4  24719747.525    24719744.659
    -58633.189 9    -45688.689 7  20690773.342    20690770.200
 98 10  6 21 40 46.0000000  0  8G25G22G29G16G15G 1G30G14
     47385.642 9     36924.047 7  21208476.834    21208474.802
    -96476.606 6    -75176.727 4  22035499.070    22035494.025
     92729.146 5     72255.879 4  22377413.367    22377409.341
   -142208.531 4   -110811.568 4  23517099.306    23517093.220
     97358.498 4     75863.949 4  23109402.254    23109393.528
     99365.002 4     77427.638 4  24160137.496    24160130.123
     70249.176 4     54739.310 4  24720262.102    24720259.979
    -59983.558 9    -46740.924 7  20690516.409    20690513.334
 98 10  6 21 40 47.0000000  0  8G25G22G29G16G15G 1G30G14
     49212.910 9     38347.891 7  21208824.600    21208822.624
    -99483.888 6    -77520.062 4  22034926.810    22034921.759
     94841.943 5     73902.213 4  22377815.401    22377811.337
   -145435.452 4   -113326.055 4  23516485.351    23516478.628
    100405.830 4     78238.488 4  23109981.752    23109974.203
    101983.267 4     79467.838 4  24160635.149    24160628.683
     72957.139 4     56849.409 4  24720777.896    24720775.575
    -61333.318 9    -47792.684 7  20690259.522    20690256.433
 98 10  6 21 40 48.0000000  0  8G25G22G29G16G15G 1G30G14
     51040.597 9     39772.062 7  21209172.296    21209170.351
   -102490.659 6    -79862.998 4  22034354.508    22034349.797
     96955.051 5     75548.789 4  22378217.310    22378213.113
   -148662.110 4   -115840.314 4  23515871.311    23515865.463
    103453.528 4     80613.305 4  23110561.874    23110553.114
    104601.775 4     81508.221 4  24161133.520    24161125.703
     75665.622 4     58959.912 4  24721293.351    24721290.912
    -62682.425 9    -48843.935 7  20690002.826    20689999.626
